PORTS® Data Listing: 8770613 Morgans Point, Barbours Cut, TX

CO-OPS RAW PORTS DATA

************************      PRELIMINARY DATA      ************************** 

     THIS RAW DATA HAS NOT BEEN SUBJECT TO THE NATIONAL OCEAN SERVICE'S        
     QUALITY CONTROL OR QUALITY ASSURANCE PROCEDURES AND DOES NOT MEET         
     THE CRITERIA AND STANDARDS OF OFFICIAL NATIONAL OCEAN SERVICE             
     DATA.  IT IS RELEASED FOR LIMITED PUBLIC USE AS PRELIMINARY DATA TO       
     BE USED ONLY WITH APPROPRIATE CAUTION.                                    

************************      PRELIMINARY DATA      ************************** 


       CD   -   Calendar date
       T    -   Time
       TZ   -   Timezone
       PW   -   Predicted water level (feet above MLLW)
       OW   -   Observed water level (feet above MLLW)
       WS   -   Wind speed (knots)
       WD   -   Wind direction (degrees true)
       WG   -   Wind gust (knots)
       AT   -   Air temperature (degrees farenheit)
       WT   -   Water temperature (degrees farenheit)
       AP   -   Air pressure (millibars)
       SA   -   Salinty (PSU - Practical Salinity Units)
       SG   -   Specific gravity
       RH   -   Relative humidity
       AG   -   Air gap (feet)
       VI   -   Visibility (nautical miles)

       ** NOTE **
       A variable that has its data fields filled with "9"s, indicates that
       data was not collected for that sample period.
       **********


STATION NAME: Morgans Point (8770613)
****************************************************************************************************
    CD       T    TZ    PW     OW    WS   WD   WG    AT    WT    AP    SA    SG     RH    AG   VI
****************************************************************************************************
2019/12/03 04:06 CST    1.22   0.50    2   94    3  52.2  63.1 1019.9 14.1  1.010 -99.9 -99.99 -9.99
2019/12/03 04:12 CST    1.22   0.49    2   99    2  52.0  63.1 1019.8 14.2  1.010 -99.9 -99.99 -9.99
2019/12/03 04:18 CST    1.21   0.48    2   98    3  51.8  63.1 1019.6 14.2  1.010 -99.9 -99.99 -9.99
2019/12/03 04:24 CST    1.21   0.56    2  106    3  51.8  63.3 1019.5 14.2  1.010 -99.9 -99.99 -9.99
2019/12/03 04:30 CST    1.21   0.51    2   94    2  52.2  63.3 1019.5 14.1  1.010 -99.9 -99.99 -9.99
2019/12/03 04:36 CST    1.21   0.55    2   91    3  52.0  63.3 1019.4 14.2  1.010 -99.9 -99.99 -9.99
2019/12/03 04:42 CST    1.20   0.52    3  102    4  52.0  63.3 1019.2 14.2  1.010 -99.9 -99.99 -9.99
2019/12/03 04:48 CST    1.20   0.61    5  108    5  52.2  63.5 1019.1 14.2  1.010 -99.9 -99.99 -9.99
2019/12/03 04:54 CST    1.19   0.57    4  110    6  52.2  63.5 1019.0 14.5  1.011 -99.9 -99.99 -9.99
2019/12/03 05:00 CST    1.19   0.59    4  110    6  52.3  63.5 1019.0 14.2  1.010 -99.9 -99.99 -9.99
2019/12/03 05:06 CST    1.18   0.58    4  115    5  52.3  63.5 1018.9 14.2  1.010 -99.9 -99.99 -9.99
2019/12/03 05:12 CST    1.18   0.63    5  130    6  52.7  63.7 1018.9 14.2  1.010 -99.9 -99.99 -9.99
2019/12/03 05:18 CST    1.17   0.64    5  134    6  53.4  63.7 1018.9 14.3  1.011 -99.9 -99.99 -9.99
2019/12/03 05:24 CST    1.17   0.62    5  128    7  53.6  63.5 1018.9 14.2  1.010 -99.9 -99.99 -9.99
2019/12/03 05:30 CST    1.16   0.60    5  136    6  53.6  63.5 1018.7 14.2  1.010 -99.9 -99.99 -9.99
2019/12/03 05:36 CST    1.15   0.64    6  131    7  53.6  63.5 1018.6 14.6  1.011 -99.9 -99.99 -9.99
2019/12/03 05:42 CST    1.15   0.64    5  135    7  53.6  63.5 1018.7 14.8  1.011 -99.9 -99.99 -9.99
2019/12/03 05:48 CST    1.14   0.66    5  139    6  53.8  63.5 1018.6 14.4  1.011 -99.9 -99.99 -9.99
2019/12/03 05:54 CST    1.13   0.64    6  140    7  54.1  63.5 1018.5 14.6  1.011 -99.9 -99.99 -9.99
2019/12/03 06:00 CST    1.12   0.66    6  135    8  54.0  63.5 1018.5 14.4  1.011 -99.9 -99.99 -9.99
2019/12/03 06:06 CST    1.11   0.68    5  134    7  54.0  63.3 1018.7 14.5  1.011 -99.9 -99.99 -9.99
2019/12/03 06:12 CST    1.10   0.70    5  128    7  54.0  63.5 1018.8 14.3  1.010 -99.9 -99.99 -9.99
2019/12/03 06:18 CST    1.09   0.68    5  125    6  54.0  63.5 1018.8 14.5  1.011 -99.9 -99.99 -9.99
2019/12/03 06:24 CST    1.08   0.69    4  118    6  54.0  63.7 1018.9 14.6  1.011 -99.9 -99.99 -9.99
2019/12/03 06:30 CST    1.07   0.72    4  115    6  53.4  63.7 1018.9 14.5  1.011 -99.9 -99.99 -9.99
2019/12/03 06:36 CST    1.06   0.73    5  100    6  53.1  63.9 1019.0 14.9  1.011 -99.9 -99.99 -9.99
2019/12/03 06:42 CST    1.05   0.77    5   95    6  53.4  63.9 1019.1 14.9  1.011 -99.9 -99.99 -9.99
2019/12/03 06:48 CST    1.04   0.72    5   92    6  53.6  63.9 1018.9 14.9  1.011 -99.9 -99.99 -9.99
2019/12/03 06:54 CST    1.02   0.75    4   93    6  52.7  63.9 1018.8 14.9  1.011 -99.9 -99.99 -9.99
2019/12/03 07:00 CST    1.01   0.76    4   98    5  53.1  63.9 1019.0 14.9  1.011 -99.9 -99.99 -9.99
2019/12/03 07:06 CST    1.00   0.92    5   97    6  53.2  63.9 1018.9 14.9  1.011 -99.9 -99.99 -9.99
2019/12/03 07:12 CST    0.99   0.74    6   97    7  53.6  63.9 1018.8 14.4  1.011 -99.9 -99.99 -9.99
2019/12/03 07:18 CST    0.98   0.85    5   95    7  53.6  63.9 1018.9 14.9  1.011 -99.9 -99.99 -9.99
2019/12/03 07:24 CST    0.97   0.76    6   96    7  53.6  63.9 1018.8 15.0  1.011 -99.9 -99.99 -9.99
2019/12/03 07:30 CST    0.96   0.75    6  105    7  54.0  63.9 1018.7 15.0  1.011 -99.9 -99.99 -9.99
2019/12/03 07:36 CST    0.95   0.74    5  102    7  54.3  63.9 1018.8 14.9  1.011 -99.9 -99.99 -9.99
2019/12/03 07:42 CST    0.94   0.76    5  110    7  54.3  64.0 1018.9 15.3  1.011 -99.9 -99.99 -9.99
2019/12/03 07:48 CST    0.93   0.75    4  106    6  54.5  64.0 1018.9 15.3  1.011 -99.9 -99.99 -9.99
2019/12/03 07:54 CST    0.92   0.75    4  107    5  54.9  64.0 1019.0 15.3  1.011 -99.9 -99.99 -9.99
2019/12/03 08:00 CST    0.91   0.76    4   99    4  54.9  64.0 1019.0 15.3  1.011 -99.9 -99.99 -9.99
2019/12/03 08:06 CST    0.90   0.78    4  107    5  55.2  64.0 1019.0 15.4  1.011 -99.9 -99.99 -9.99
2019/12/03 08:12 CST    0.89   0.85    5  106    5  55.6  64.0 1019.1 15.4  1.011 -99.9 -99.99 -9.99
2019/12/03 08:18 CST    0.89   0.80    5  118    7  56.3  64.0 1019.1 15.4  1.011 -99.9 -99.99 -9.99
2019/12/03 08:24 CST    0.88   0.76    5   99    6  56.1  64.2 1019.1 14.6  1.011 -99.9 -99.99 -9.99
2019/12/03 08:30 CST    0.87   0.78    5  103    7  56.1  64.2 1019.0 14.6  1.011 -99.9 -99.99 -9.99
2019/12/03 08:36 CST    0.86   0.93    6  114    7  56.7  64.2 1019.0 14.5  1.011 -99.9 -99.99 -9.99
2019/12/03 08:42 CST    0.85   0.70    6  120    8  56.8  64.2 1019.0 14.6  1.011 -99.9 -99.99 -9.99
2019/12/03 08:48 CST    0.85   0.92    6  122    8  57.2  64.2 1018.9 14.6  1.011 -99.9 -99.99 -9.99
2019/12/03 08:54 CST    0.84   0.74    7  120    8  57.4  64.0 1019.0 14.6  1.011 -99.9 -99.99 -9.99
2019/12/03 09:00 CST    0.83   0.89    6  116    8  57.6  63.9 1018.9 14.6  1.011 -99.9 -99.99 -9.99
2019/12/03 09:06 CST    0.82   0.85    7  117    9  57.9  64.0 1018.8 14.6  1.011 -99.9 -99.99 -9.99
2019/12/03 09:12 CST    0.82   0.55    7  123    8  57.7  64.0 1018.7 14.6  1.011 -99.9 -99.99 -9.99
2019/12/03 09:18 CST    0.81   0.66    7  125    9  57.9  64.0 1018.6 14.6  1.011 -99.9 -99.99 -9.99
2019/12/03 09:24 CST    0.80   0.71    7  121    9  58.1  64.0 1018.6 14.6  1.011 -99.9 -99.99 -9.99
2019/12/03 09:30 CST    0.79   0.75    5  121    9  58.6  64.0 1018.9 14.6  1.011 -99.9 -99.99 -9.99
2019/12/03 09:36 CST    0.79   0.84    7  131    8  58.3  64.0 1019.0 14.7  1.011 -99.9 -99.99 -9.99
2019/12/03 09:42 CST    0.78   0.69    7  133    8  58.5  64.0 1019.1 14.7  1.011 -99.9 -99.99 -9.99
2019/12/03 09:48 CST    0.77   0.78    6  141    8  59.0  64.0 1019.0 14.7  1.011 -99.9 -99.99 -9.99
2019/12/03 09:54 CST    0.77   0.60    6  139    8  59.4  64.0 1019.1 14.7  1.011 -99.9 -99.99 -9.99
2019/12/03 10:00 CST    0.76   0.76    5  151    8  59.7  64.0 1019.1 14.7  1.011 -99.9 -99.99 -9.99
2019/12/03 10:06 CST    0.75   0.80    6  146    7  59.9  63.9 1019.0 14.8  1.011 -99.9 -99.99 -9.99
2019/12/03 10:12 CST    0.75   0.83    6  157    8  59.7  63.7 1019.0 14.9  1.011 -99.9 -99.99 -9.99
2019/12/03 10:18 CST    0.74   0.86    9  157   11  59.7  63.7 1018.9 14.9  1.011 -99.9 -99.99 -9.99
2019/12/03 10:24 CST    0.74   0.90    7  152   11  60.8  63.7 1018.8 14.9  1.011 -99.9 -99.99 -9.99
2019/12/03 10:30 CST    0.73   0.67    6  149   10  61.0  63.7 1018.7 14.9  1.011 -99.9 -99.99 -9.99
2019/12/03 10:36 CST    0.73   0.90    9  148   10  60.6  63.7 1018.6 15.0  1.011 -99.9 -99.99 -9.99
2019/12/03 10:42 CST    0.72   0.91    7  148   10  61.0  63.7 1018.6 15.0  1.011 -99.9 -99.99 -9.99
2019/12/03 10:48 CST    0.71   0.92    5  144   10  61.2  63.7 1018.6 15.0  1.011 -99.9 -99.99 -9.99
2019/12/03 10:54 CST    0.71   0.80    8  144    9  61.0  63.7 1018.6 15.0  1.011 -99.9 -99.99 -9.99
2019/12/03 11:00 CST    0.70   0.78    6  145    9  61.7  63.7 1018.4 15.0  1.011 -99.9 -99.99 -9.99
2019/12/03 11:06 CST    0.70   0.77    7  139    9  61.3  63.7 1018.4 15.0  1.011 -99.9 -99.99 -9.99
2019/12/03 11:12 CST    0.69   0.91    6  140    9  61.5  63.7 1018.3 15.0  1.011 -99.9 -99.99 -9.99
2019/12/03 11:18 CST    0.69   0.85    6  137    8  61.5  63.7 1018.2 15.0  1.011 -99.9 -99.99 -9.99
2019/12/03 11:24 CST    0.68   0.81    6  141    8  62.4  63.7 1018.1 15.0  1.011 -99.9 -99.99 -9.99
2019/12/03 11:30 CST    0.68   0.53    6  133    8  61.9  63.7 1017.9 15.0  1.011 -99.9 -99.99 -9.99
2019/12/03 11:36 CST    0.67   0.70    6  142    9  62.6  63.7 1017.8 15.0  1.011 -99.9 -99.99 -9.99
2019/12/03 11:42 CST    0.67   0.89    8  129    9  62.1  63.7 1017.7 15.0  1.011 -99.9 -99.99 -9.99
2019/12/03 11:48 CST    0.66   0.86    6  140    9  62.8  63.7 1017.7 15.0  1.011 -99.9 -99.99 -9.99
2019/12/03 11:54 CST    0.66   0.83    6  132    9  63.0  63.7 1017.6 15.1  1.011 -99.9 -99.99 -9.99
2019/12/03 12:00 CST    0.65   0.78    6  116   10  62.4  63.5 1017.4 15.1  1.011 -99.9 -99.99 -9.99
2019/12/03 12:06 CST    0.65   0.81    6  123   10  62.6  63.7 1017.2 15.1  1.011 -99.9 -99.99 -9.99
2019/12/03 12:12 CST    0.64   0.82    8  131    9  62.6  63.7 1017.0 15.1  1.011 -99.9 -99.99 -9.99
2019/12/03 12:18 CST    0.63   0.82    9  117   11  62.2  63.5 1016.9 15.1  1.011 -99.9 -99.99 -9.99
2019/12/03 12:24 CST    0.63   0.75    9  115   12  62.2  63.7 1016.8 15.1  1.011 -99.9 -99.99 -9.99
2019/12/03 12:30 CST    0.62   0.78    7  118   11  62.6  63.7 1016.5 15.1  1.011 -99.9 -99.99 -9.99
2019/12/03 12:36 CST    0.61   0.71    8  124   12  62.8  63.9 1016.3 15.0  1.011 -99.9 -99.99 -9.99
2019/12/03 12:42 CST    0.61   0.75    8  119   12  62.8  63.9 1016.2 15.0  1.011 -99.9 -99.99 -9.99
2019/12/03 12:48 CST    0.60   0.71    8  124   11  62.8  63.9 1016.0 15.0  1.011 -99.9 -99.99 -9.99
2019/12/03 12:54 CST    0.59   0.78    8  113   11  62.8  63.9 1016.0 15.0  1.011 -99.9 -99.99 -9.99
2019/12/03 13:00 CST    0.59   0.79    9  115   12  62.6  63.9 1015.9 15.0  1.011 -99.9 -99.99 -9.99
2019/12/03 13:06 CST    0.58   0.76    7  121   11  63.1  63.9 1015.8 15.0  1.011 -99.9 -99.99 -9.99
2019/12/03 13:12 CST    0.57   0.69    9  114   11  62.8  63.9 1015.7 15.0  1.011 -99.9 -99.99 -9.99
2019/12/03 13:18 CST    0.57   0.69   11  110   11  62.2  63.9 1015.6 14.9  1.011 -99.9 -99.99 -9.99
2019/12/03 13:24 CST    0.56   0.69    8  114   12  63.0  63.9 1015.5 15.0  1.011 -99.9 -99.99 -9.99
2019/12/03 13:30 CST    0.55   0.75    9  114   12  62.6  63.9 1015.3 15.0  1.011 -99.9 -99.99 -9.99
2019/12/03 13:36 CST    0.55   0.67   10  109   12  62.4  63.9 1015.3 15.0  1.011 -99.9 -99.99 -9.99
2019/12/03 13:42 CST    0.54   0.59   10  121   11  62.6  63.9 1015.2 15.0  1.011 -99.9 -99.99 -9.99
2019/12/03 13:48 CST    0.53   0.69    9  116   11  63.1  64.0 1015.0 15.0  1.011 -99.9 -99.99 -9.99
2019/12/03 13:54 CST    0.52   0.70    8  129   11  63.3  64.0 1014.9 15.0  1.011 -99.9 -99.99 -9.99
2019/12/03 14:00 CST    0.52   0.66    9  127   12  63.1  64.0 1014.9 15.0  1.011 -99.9 -99.99 -9.99
2019/12/03 14:06 CST    0.51   0.65   10  132   12  63.1  64.0 1014.7 15.0  1.011 -99.9 -99.99 -9.99
2019/12/03 14:12 CST    0.50   0.79   11  131   13  63.3  64.0 1014.6 15.0  1.011 -99.9 -99.99 -9.99
2019/12/03 14:18 CST    0.49   0.61   10  130   13  63.7  64.0 1014.5 15.0  1.011 -99.9 -99.99 -9.99
2019/12/03 14:24 CST    0.48   0.59   11  134   13  63.9  64.0 1014.5 15.0  1.011 -99.9 -99.99 -9.99
2019/12/03 14:30 CST    0.48   0.60   11  130   14  63.3  64.0 1014.3 15.0  1.011 -99.9 -99.99 -9.99
2019/12/03 14:36 CST    0.47   0.45   11  126   14  63.5  64.0 1014.1 15.0  1.011 -99.9 -99.99 -9.99
2019/12/03 14:42 CST    0.46   0.68   10  130   13  64.0  64.2 1014.1 15.0  1.011 -99.9 -99.99 -9.99
2019/12/03 14:48 CST    0.45   0.54   10  123   13  63.7  64.2 1014.1 14.8  1.011 -99.9 -99.99 -9.99
2019/12/03 14:54 CST    0.44   0.50   10  123   13  63.7  64.2 1014.2 14.8  1.011 -99.9 -99.99 -9.99
2019/12/03 15:00 CST    0.43   0.52   10  122   14  63.5  64.2 1014.1 14.8  1.011 -99.9 -99.99 -9.99
2019/12/03 15:06 CST    0.42   0.54   11  124   14  63.5  64.2 1013.9 14.8  1.011 -99.9 -99.99 -9.99
2019/12/03 15:12 CST    0.41   0.55   12  128   15  63.3  64.0 1013.9 15.0  1.011 -99.9 -99.99 -9.99
2019/12/03 15:18 CST    0.40   0.60   11  130   14  63.5  64.0 1013.9 15.0  1.011 -99.9 -99.99 -9.99
2019/12/03 15:24 CST    0.39   0.53    9  123   12  63.5  64.0 1013.8 15.0  1.011 -99.9 -99.99 -9.99
2019/12/03 15:30 CST    0.38   0.45    9  122   13  63.7  63.9 1013.9 15.0  1.011 -99.9 -99.99 -9.99
2019/12/03 15:36 CST    0.37   0.49   10  124   13  63.3  63.9 1013.9 15.0  1.011 -99.9 -99.99 -9.99
2019/12/03 15:42 CST    0.36   0.47    9  110   12  63.1  63.9 1014.0 15.0  1.011 -99.9 -99.99 -9.99
2019/12/03 15:48 CST    0.35   0.51    9  115   12  63.1  64.0 1014.1 15.0  1.011 -99.9 -99.99 -9.99
2019/12/03 15:54 CST    0.33   0.47    8  117   11  63.3  64.0 1014.1 15.1  1.011 -99.9 -99.99 -9.99
2019/12/03 16:00 CST    0.32   0.41    9  116   12  63.3  64.0 1014.2 15.1  1.011 -99.9 -99.99 -9.99
2019/12/03 16:06 CST    0.31   0.35    8  120   11  63.3  64.0 1014.2 15.1  1.011 -99.9 -99.99 -9.99
2019/12/03 16:12 CST    0.30   0.42    9  117   11  63.1  64.0 1014.1 15.0  1.011 -99.9 -99.99 -9.99
2019/12/03 16:18 CST    0.29   0.43   10  128   12  63.3  64.0 1014.1 15.0  1.011 -99.9 -99.99 -9.99
2019/12/03 16:24 CST    0.28   0.39   10  124   11  63.3  64.0 1014.2 15.0  1.011 -99.9 -99.99 -9.99
2019/12/03 16:30 CST    0.27   0.36    9  112   12  63.0  63.9 1014.0 15.0  1.011 -99.9 -99.99 -9.99
2019/12/03 16:36 CST    0.26   0.31    7  119   11  63.0  64.0 1014.0 15.0  1.011 -99.9 -99.99 -9.99
2019/12/03 16:42 CST    0.25   0.31   10  130   11  63.1  63.9 1014.0 15.0  1.011 -99.9 -99.99 -9.99
2019/12/03 16:48 CST    0.24   0.30   10  134   12  63.1  63.9 1014.0 15.0  1.011 -99.9 -99.99 -9.99
2019/12/03 16:54 CST    0.24   0.27    9  134   11  63.0  63.9 1014.0 14.6  1.011 -99.9 -99.99 -9.99
2019/12/03 17:00 CST    0.23   0.29    9  135   11  62.8  63.9 1014.0 15.9  1.012 -99.9 -99.99 -9.99
2019/12/03 17:06 CST    0.22   0.22    8  136   10  62.6  63.9 1013.9 15.9  1.012 -99.9 -99.99 -9.99
2019/12/03 17:12 CST    0.21   0.26    7  139    9  62.4  63.7 1014.0 15.9  1.012 -99.9 -99.99 -9.99
2019/12/03 17:18 CST    0.20   0.22    5  141    8  62.4  63.7 1014.1 15.8  1.012 -99.9 -99.99 -9.99
2019/12/03 17:24 CST    0.20   0.19    6  151    8  63.0  63.7 1014.2 15.8  1.012 -99.9 -99.99 -9.99
2019/12/03 17:30 CST    0.19   0.18    5  147    7  63.1  63.7 1014.2 14.9  1.011 -99.9 -99.99 -9.99
2019/12/03 17:36 CST    0.18   0.18    6  134    7  62.2  63.7 1014.2 14.8  1.011 -99.9 -99.99 -9.99
2019/12/03 17:42 CST    0.17   0.18    6  134    7  62.4  63.7 1014.2 14.7  1.011 -99.9 -99.99 -9.99
2019/12/03 17:48 CST    0.17   0.17    6  131    7  62.6  63.7 1014.5 14.7  1.011 -99.9 -99.99 -9.99
2019/12/03 17:54 CST    0.16   0.15    5  126    7  62.8  63.7 1014.5 14.7  1.011 -99.9 -99.99 -9.99
2019/12/03 18:00 CST    0.15   0.26    5  119    6  62.4  63.7 1014.5 14.7  1.011 -99.9 -99.99 -9.99
2019/12/03 18:06 CST    0.15   0.08    4  126    6  62.2  63.5 1014.6 14.7  1.011 -99.9 -99.99 -9.99
2019/12/03 18:12 CST    0.14   0.16    5  112    5  61.7  63.5 1014.6 14.7  1.011 -99.9 -99.99 -9.99
2019/12/03 18:18 CST    0.13   0.12    5  119    6  61.7  63.5 1014.5 14.6  1.011 -99.9 -99.99 -9.99
2019/12/03 18:24 CST    0.13   0.27    4  123    7  61.5  63.5 1014.5 14.7  1.011 -99.9 -99.99 -9.99
2019/12/03 18:30 CST    0.12   0.03    4  141    5  61.5  63.5 1014.6 14.6  1.011 -99.9 -99.99 -9.99
2019/12/03 18:36 CST    0.12   0.11    3  127    5  61.7  63.5 1014.8 14.6  1.011 -99.9 -99.99 -9.99
2019/12/03 18:42 CST    0.11  -0.02    4  124    5  61.5  63.5 1014.7 14.6  1.011 -99.9 -99.99 -9.99
2019/12/03 18:48 CST    0.11   0.20    4  117    5  61.0  63.5 1014.8 14.6  1.011 -99.9 -99.99 -9.99
2019/12/03 18:54 CST    0.10   0.08    3  122    5  61.2  63.5 1014.9 14.6  1.011 -99.9 -99.99 -9.99
2019/12/03 19:00 CST    0.10   0.05    4  137    5  61.3  63.5 1014.9 14.6  1.011 -99.9 -99.99 -9.99
2019/12/03 19:06 CST    0.09  -0.01    2  134    4  61.3  63.5 1015.0 14.6  1.011 -99.9 -99.99 -9.99
2019/12/03 19:12 CST    0.09   0.08    2  142    3  61.2  63.5 1015.1 14.6  1.011 -99.9 -99.99 -9.99
2019/12/03 19:18 CST    0.09   0.16    4  156    4  61.2  63.5 1015.1 14.6  1.011 -99.9 -99.99 -9.99
2019/12/03 19:24 CST    0.08   0.07    4  156    5  61.3  63.5 1015.1 14.6  1.011 -99.9 -99.99 -9.99
2019/12/03 19:30 CST    0.08   0.05    4  165    5  61.5  63.5 1015.1 14.6  1.011 -99.9 -99.99 -9.99
2019/12/03 19:36 CST    0.08   0.12    3  166    4  61.5  63.5 1015.2 14.6  1.011 -99.9 -99.99 -9.99
2019/12/03 19:42 CST    0.08   0.12    3  178    4  61.5  63.5 1015.1 14.5  1.011 -99.9 -99.99 -9.99
2019/12/03 19:48 CST    0.08   0.13    3  192    5  61.5  63.5 1015.1 14.5  1.011 -99.9 -99.99 -9.99
2019/12/03 19:54 CST    0.08   0.04    3  208    4  61.7  63.5 1015.2 14.5  1.011 -99.9 -99.99 -9.99
2019/12/03 20:00 CST    0.09   0.09    3  222    5  61.7  63.5 1015.2 14.5  1.011 -99.9 -99.99 -9.99
2019/12/03 20:06 CST    0.09   0.17    4  210    6  61.3  63.5 1015.1 14.5  1.011 -99.9 -99.99 -9.99
2019/12/03 20:12 CST    0.10   0.12    5  214    7  61.3  63.5 1015.2 14.6  1.011 -99.9 -99.99 -9.99
2019/12/03 20:18 CST    0.10   0.12    4  231    7  61.3  63.5 1015.3 14.4  1.011 -99.9 -99.99 -9.99
2019/12/03 20:24 CST    0.11   0.11    4  227    6  61.2  63.5 1015.3 14.4  1.011 -99.9 -99.99 -9.99
2019/12/03 20:30 CST    0.11   0.14    4  224    6  61.2  63.5 1015.2 14.5  1.011 -99.9 -99.99 -9.99
2019/12/03 20:36 CST    0.12   0.13    4  225    6  61.2  63.5 1015.1 14.5  1.011 -99.9 -99.99 -9.99
2019/12/03 20:42 CST    0.13   0.16    4  233    6  61.2  63.5 1015.3 14.4  1.011 -99.9 -99.99 -9.99
2019/12/03 20:48 CST    0.14   0.16    4  223    6  61.2  63.5 1015.1 14.4  1.011 -99.9 -99.99 -9.99
2019/12/03 20:54 CST    0.15   0.18    4  227    7  61.2  63.5 1015.1 14.5  1.011 -99.9 -99.99 -9.99
2019/12/03 21:00 CST    0.16   0.30    4  231    6  61.2  63.5 1015.2 14.4  1.011 -99.9 -99.99 -9.99
2019/12/03 21:06 CST    0.17   0.18    5  232    6  61.0  63.5 1015.2 14.4  1.011 -99.9 -99.99 -9.99
2019/12/03 21:12 CST    0.19   0.16    4  236    6  61.0  63.5 1015.2 14.4  1.011 -99.9 -99.99 -9.99
2019/12/03 21:18 CST    0.20   0.29    5  234    6  61.2  63.5 1015.2 14.3  1.011 -99.9 -99.99 -9.99
2019/12/03 21:24 CST    0.21   0.27    5  232    7  61.0  63.5 1015.0 14.3  1.011 -99.9 -99.99 -9.99
2019/12/03 21:30 CST    0.22   0.17    6  234    7  61.3  63.5 1015.1 14.3  1.011 -99.9 -99.99 -9.99
2019/12/03 21:36 CST    0.24   0.18    5  240    6  61.3  63.5 1015.4 14.3  1.011 -99.9 -99.99 -9.99
2019/12/03 21:42 CST    0.25   0.24    5  241    7  61.5  63.5 1015.7 14.4  1.011 -99.9 -99.99 -9.99
2019/12/03 21:48 CST    0.27   0.29    5  239    7  61.5  63.5 1015.6 14.2  1.010 -99.9 -99.99 -9.99
2019/12/03 21:54 CST    0.28   0.35    4  243    6  61.5  63.5 1015.6 14.4  1.011 -99.9 -99.99 -9.99
2019/12/03 22:00 CST    0.30   0.30    6  248    8  61.9  63.5 1015.8 14.4  1.011 -99.9 -99.99 -9.99
2019/12/03 22:06 CST    0.31   0.37    7  245    9  61.9  63.5 1015.8 14.3  1.011 -99.9 -99.99 -9.99
2019/12/03 22:12 CST    0.33   0.35    6  243   10  61.5  63.5 1015.9 14.4  1.011 -99.9 -99.99 -9.99
2019/12/03 22:18 CST    0.35   0.39    5  246    8  61.3  63.5 1016.0 14.3  1.011 -99.9 -99.99 -9.99
2019/12/03 22:24 CST    0.36   0.37    4  250    6  61.0  63.5 1016.1 14.3  1.011 -99.9 -99.99 -9.99
2019/12/03 22:30 CST    0.38   0.39    4  245    6  61.0  63.3 1016.0 14.4  1.011 -99.9 -99.99 -9.99
2019/12/03 22:36 CST    0.40   0.44    4  242    6  60.6  63.3 1015.8 14.4  1.011 -99.9 -99.99 -9.99
2019/12/03 22:42 CST    0.42   0.54    4  239    5  60.1  63.3 1015.7 14.4  1.011 -99.9 -99.99 -9.99
2019/12/03 22:48 CST    0.43   0.43    4  240    5  59.9  63.3 1015.6 14.4  1.011 -99.9 -99.99 -9.99
2019/12/03 22:54 CST    0.45   0.47    3  253    5  59.9  63.3 1015.8 14.4  1.011 -99.9 -99.99 -9.99
2019/12/03 23:00 CST    0.47   0.48    4  240    5  59.9  63.3 1015.7 14.4  1.011 -99.9 -99.99 -9.99
2019/12/03 23:06 CST    0.49   0.59    4  251    6  60.3  63.3 1015.9 14.4  1.011 -99.9 -99.99 -9.99
2019/12/03 23:12 CST    0.51   0.63    4  252    6  60.3  63.3 1015.9 14.4  1.011 -99.9 -99.99 -9.99
2019/12/03 23:18 CST    0.53   0.58    5  258    5  60.1  63.3 1015.9 14.4  1.011 -99.9 -99.99 -9.99
2019/12/03 23:24 CST    0.55   0.56    5  247    6  60.1  63.3 1015.8 14.4  1.011 -99.9 -99.99 -9.99
2019/12/03 23:30 CST    0.57   0.70    5  245    6  60.4  63.3 1015.7 14.4  1.011 -99.9 -99.99 -9.99
2019/12/03 23:36 CST    0.59   0.54    5  251    7  60.3  63.1 1015.8 14.4  1.011 -99.9 -99.99 -9.99
2019/12/03 23:42 CST    0.61   0.71    5  256    7  60.1  63.1 1015.8 14.4  1.011 -99.9 -99.99 -9.99
2019/12/03 23:48 CST    0.63   0.67    5  253    7  59.9  63.1 1015.8 14.3  1.011 -99.9 -99.99 -9.99
2019/12/03 23:54 CST    0.65   0.75    6  252    7  59.9  63.1 1015.8 14.3  1.011 -99.9 -99.99 -9.99
2019/12/04 00:00 CST    0.67   0.79    5  257    7  59.9  63.1 1015.7 14.3  1.011 -99.9 -99.99 -9.99
2019/12/04 00:06 CST    0.69   0.80    5  262    7  60.1  63.1 1015.7 14.3  1.011 -99.9 -99.99 -9.99
2019/12/04 00:12 CST    0.71   0.74    4  265    6  60.1  63.1 1015.7 14.4  1.011 -99.9 -99.99 -9.99
2019/12/04 00:18 CST    0.73   0.81    4  257    5  59.5  63.3 1015.8 14.4  1.011 -99.9 -99.99 -9.99
2019/12/04 00:24 CST    0.75   0.83    3  270    7  59.2  63.1 1015.8 14.4  1.011 -99.9 -99.99 -9.99
2019/12/04 00:30 CST    0.77   0.86    4  276    5  58.8  63.1 1015.8 14.4  1.011 -99.9 -99.99 -9.99
2019/12/04 00:36 CST    0.79   0.86    4  277    6  58.8  63.1 1015.8 14.4  1.011 -99.9 -99.99 -9.99
2019/12/04 00:42 CST    0.81   0.87    3  290    4  57.0  63.1 1015.7 14.4  1.011 -99.9 -99.99 -9.99
2019/12/04 00:48 CST    0.82   0.87    4  294    5  56.7  63.3 1015.8 14.4  1.011 -99.9 -99.99 -9.99
2019/12/04 00:54 CST    0.84   0.95    5  299    6  57.2  63.3 1015.7 14.4  1.011 -99.9 -99.99 -9.99
2019/12/04 01:00 CST    0.86   0.91    5  286    6  58.1  63.3 1015.6 14.4  1.011 -99.9 -99.99 -9.99
2019/12/04 01:06 CST    0.88   0.92    4  281    6  58.1  63.5 1015.7 14.4  1.011 -99.9 -99.99 -9.99
2019/12/04 01:12 CST    0.89   0.88    4  272    5  57.9  63.5 1015.7 14.5  1.011 -99.9 -99.99 -9.99
2019/12/04 01:18 CST    0.91   0.99    3  269    5  58.5  63.5 1015.7 14.5  1.011 -99.9 -99.99 -9.99
2019/12/04 01:24 CST    0.93   0.91    4  271    5  58.3  63.5 1015.7 14.5  1.011 -99.9 -99.99 -9.99
2019/12/04 01:30 CST    0.94   0.97    3  266    5  58.5  63.5 1015.7 14.5  1.011 -99.9 -99.99 -9.99
2019/12/04 01:36 CST    0.96   1.04    3  268    4  58.3  63.5 1015.7 14.5  1.011 -99.9 -99.99 -9.99
2019/12/04 01:42 CST    0.97   1.05    3  274    5  58.3  63.5 1015.7 14.5  1.011 -99.9 -99.99 -9.99
2019/12/04 01:48 CST    0.99   1.02    3  276    4  58.6  63.5 1015.9 14.5  1.011 -99.9 -99.99 -9.99
2019/12/04 01:54 CST    1.00   1.06    5  274    6  58.8  63.5 1015.8 14.5  1.011 -99.9 -99.99 -9.99
2019/12/04 02:00 CST    1.01   0.92    3  278    6  59.0  63.5 1015.6 14.5  1.011 -99.9 -99.99 -9.99
2019/12/04 02:06 CST    1.03   1.18    2  275    4  59.0  63.5 1015.6 14.5  1.011 -99.9 -99.99 -9.99
2019/12/04 02:12 CST    1.04   0.98    3  283    5  58.8  63.5 1015.7 14.4  1.011 -99.9 -99.99 -9.99
2019/12/04 02:18 CST    1.05   1.06    5  279    6  59.0  63.5 1015.7 14.4  1.011 -99.9 -99.99 -9.99
2019/12/04 02:24 CST    1.06   1.06    5  280    6  59.0  63.5 1015.7 14.4  1.011 -99.9 -99.99 -9.99
2019/12/04 02:30 CST    1.07   1.08    6  275    8  58.6  63.3 1015.8 14.5  1.011 -99.9 -99.99 -9.99
2019/12/04 02:36 CST    1.08   1.03    5  277    7  58.5  63.5 1015.8 14.5  1.011 -99.9 -99.99 -9.99
2019/12/04 02:42 CST    1.09   1.11    6  271    7  58.3  63.3 1016.0 14.5  1.011 -99.9 -99.99 -9.99
2019/12/04 02:48 CST    1.10   1.07    6  274    7  58.6  63.3 1015.9 14.5  1.011 -99.9 -99.99 -9.99
2019/12/04 02:54 CST    1.11   1.11    5  280    6  58.5  63.3 1015.9 14.5  1.011 -99.9 -99.99 -9.99
2019/12/04 03:00 CST    1.12   1.08    4  288    5  58.1  63.3 1015.8 14.6  1.011 -99.9 -99.99 -9.99
2019/12/04 03:06 CST    1.12   1.13    3  300    4  57.9  63.3 1015.8 14.6  1.011 -99.9 -99.99 -9.99
2019/12/04 03:12 CST    1.13   1.12    2  307    3  57.9  63.3 1015.9 14.6  1.011 -99.9 -99.99 -9.99
2019/12/04 03:18 CST    1.13   1.20    2  319    2  57.9  63.3 1016.0 14.6  1.011 -99.9 -99.99 -9.99
2019/12/04 03:24 CST    1.14   1.09    1  316    2  57.7  63.3 1016.0 14.5  1.011 -99.9 -99.99 -9.99
2019/12/04 03:30 CST    1.14   1.19    1  314    2  57.6  63.5 1016.0 14.6  1.011 -99.9 -99.99 -9.99
2019/12/04 03:36 CST    1.14   0.98    1  319    2  57.6  63.5 1016.1 14.6  1.011 -99.9 -99.99 -9.99
2019/12/04 03:42 CST    1.14   1.17    3  283    3  57.6  63.7 1016.0 14.8  1.011 -99.9 -99.99 -9.99
2019/12/04 03:48 CST    1.14   1.04    4  298    4  57.4  63.5 1016.0 14.7  1.011 -99.9 -99.99 -9.99
2019/12/04 03:54 CST    1.14   1.11    3  281    4  57.2  63.5 1016.1 14.7  1.011 -99.9 -99.99 -9.99
2019/12/04 04:00 CST    1.14   1.17    4  296    5  57.2  63.5 1016.0 14.7  1.011 -99.9 -99.99 -9.99
2019/12/04 04:06 CST    1.14   1.16    3  284    4  57.2  63.5 1016.0 14.7  1.011 -99.9 -99.99 -9.99
2019/12/04 04:12 CST    1.14   1.09    4  301    5  57.2  63.5 1016.2 14.6  1.011 -99.9 -99.99 -9.99
2019/12/04 04:18 CST    1.14   1.14    4  300    5  58.1  63.5 1016.2 14.6  1.011 -99.9 -99.99 -9.99
2019/12/04 04:24 CST    1.14   1.14    5  306    6  57.9  63.5 1016.2 14.6  1.011 -99.9 -99.99 -9.99
2019/12/04 04:30 CST    1.14   1.12    4  296    5  57.4  63.5 1016.2 14.6  1.011 -99.9 -99.99 -9.99
2019/12/04 04:36 CST    1.13   1.07    4  282    4  57.0  63.5 1016.3 14.7  1.011 -99.9 -99.99 -9.99
2019/12/04 04:42 CST    1.13   1.06    3  281    4  56.8  63.5 1016.4 14.6  1.011 -99.9 -99.99 -9.99
2019/12/04 04:48 CST    1.12   1.08    4  294    5  56.8  63.5 1016.4 14.5  1.011 -99.9 -99.99 -9.99
2019/12/04 04:54 CST    1.12   1.10    3  306    4  57.4  63.5 1016.4 14.5  1.011 -99.9 -99.99 -9.99
2019/12/04 05:00 CST    1.12   1.13    4  299    5  57.0  63.5 1016.4 14.5  1.011 -99.9 -99.99 -9.99
2019/12/04 05:06 CST    1.11   1.02    4  298    4  56.7  63.5 1016.5 14.6  1.011 -99.9 -99.99 -9.99
2019/12/04 05:12 CST    1.11   0.96    4  311    4  56.8  63.5 1016.5 14.6  1.011 -99.9 -99.99 -9.99
2019/12/04 05:18 CST    1.10   1.08    4  305    5  57.0  63.5 1016.5 14.7  1.011 -99.9 -99.99 -9.99
2019/12/04 05:24 CST    1.10   0.82    4  314    6  56.8  63.5 1016.6 14.7  1.011 -99.9 -99.99 -9.99
2019/12/04 05:30 CST    1.09   1.04    6  325    8  57.9  63.5 1016.7 14.7  1.011 -99.9 -99.99 -9.99
2019/12/04 05:36 CST    1.08   1.01    7  336    9  58.3  63.5 1016.8 14.8  1.011 -99.9 -99.99 -9.99
2019/12/04 05:42 CST    1.08   1.01    7  315    9  58.3  63.5 1016.8 14.7  1.011 -99.9 -99.99 -9.99
2019/12/04 05:48 CST    1.07   1.03    7  300    8  57.4  63.5 1016.8 14.7  1.011 -99.9 -99.99 -9.99
2019/12/04 05:54 CST    1.06   0.96    6  289    7  56.5  63.5 1016.9 14.7  1.011 -99.9 -99.99 -9.99
2019/12/04 06:00 CST    1.05   0.88    6  286    7  56.1  63.5 1017.0 14.7  1.011 -99.9 -99.99 -9.99
2019/12/04 06:06 CST    1.05   0.97    5  286    7  56.3  63.5 1017.0 14.8  1.011 -99.9 -99.99 -9.99
2019/12/04 06:12 CST    1.04   0.92    5  289    6  55.9  63.5 1017.0 14.8  1.011 -99.9 -99.99 -9.99
2019/12/04 06:18 CST    1.03   0.89    4  284    6  55.9  63.5 1017.0 14.7  1.011 -99.9 -99.99 -9.99
2019/12/04 06:24 CST    1.02   0.86    4  279    5  56.5  63.3 1017.0 14.8  1.011 -99.9 -99.99 -9.99
2019/12/04 06:30 CST    1.01   0.83    4  293    5  56.8  63.3 1017.1 14.8  1.011 -99.9 -99.99 -9.99
2019/12/04 06:36 CST    1.00   0.95    4  282    5  56.8  63.3 1017.1 14.8  1.011 -99.9 -99.99 -9.99
2019/12/04 06:42 CST    0.98   0.88    4  295    5  55.9  63.3 1017.2 14.8  1.011 -99.9 -99.99 -9.99
2019/12/04 06:48 CST    0.97   0.80    4  328    5  55.8  63.3 1017.3 14.7  1.011 -99.9 -99.99 -9.99
2019/12/04 06:54 CST    0.96   0.81    2  330    4  56.1  63.3 1017.3 14.7  1.011 -99.9 -99.99 -9.99
2019/12/04 07:00 CST    0.95   0.87    1  318    2  55.9  63.1 1017.3 14.7  1.011 -99.9 -99.99 -9.99
2019/12/04 07:06 CST    0.94   0.85    1  360    2  56.5  63.3 1017.4 14.7  1.011 -99.9 -99.99 -9.99
2019/12/04 07:12 CST    0.92   0.79    2    4    3  56.8  63.1 1017.6 14.9  1.011 -99.9 -99.99 -9.99
2019/12/04 07:18 CST    0.91   0.73    4    3    5  57.2  63.1 1017.6 14.9  1.011 -99.9 -99.99 -9.99
2019/12/04 07:24 CST    0.90   0.82    6  359    7  57.2  63.1 1017.7 14.8  1.011 -99.9 -99.99 -9.99
2019/12/04 07:30 CST    0.88   0.77    7  349    9  57.4  63.1 1017.8 14.9  1.011 -99.9 -99.99 -9.99
2019/12/04 07:36 CST    0.87   0.72    8  347   10  57.6  63.1 1017.9 14.8  1.011 -99.9 -99.99 -9.99
2019/12/04 07:42 CST    0.86   0.68    9  345   11  57.2  63.1 1018.0 14.8  1.011 -99.9 -99.99 -9.99
2019/12/04 07:48 CST    0.84   0.69    7  342   10  56.7  63.1 1018.2 14.8  1.011 -99.9 -99.99 -9.99
2019/12/04 07:54 CST    0.83   0.71    7  345   10  56.3  63.1 1018.2 14.8  1.011 -99.9 -99.99 -9.99
2019/12/04 08:00 CST    0.82   0.72    7  345   10  55.9  63.1 1018.3 14.8  1.011 -99.9 -99.99 -9.99
2019/12/04 08:06 CST    0.81   0.65    7  345    8  55.9  63.0 1018.4 14.9  1.011 -99.9 -99.99 -9.99
2019/12/04 08:12 CST    0.80   0.63    7  357    9  55.8  63.0 1018.6 14.9  1.011 -99.9 -99.99 -9.99
2019/12/04 08:18 CST    0.78   0.67    7  359    9  55.6  63.0 1018.7 14.8  1.011 -99.9 -99.99 -9.99
2019/12/04 08:24 CST    0.77   0.64    6    2    9  55.6  63.0 1018.8 15.2  1.011 -99.9 -99.99 -9.99
2019/12/04 08:30 CST    0.76   0.61    5    2    7  55.8  63.0 1018.8 15.7  1.012 -99.9 -99.99 -9.99
2019/12/04 08:36 CST    0.75   0.59    5    5    7  56.3  63.0 1018.9 15.7  1.012 -99.9 -99.99 -9.99
2019/12/04 08:42 CST    0.75   0.62    6   10    7  56.5  63.0 1018.9 15.6  1.012 -99.9 -99.99 -9.99
2019/12/04 08:48 CST    0.74   0.35    6   12    8  57.0  63.0 1018.9 14.8  1.011 -99.9 -99.99 -9.99
2019/12/04 08:54 CST    0.73   0.47    6    9    8  57.4  63.0 1018.9 14.7  1.011 -99.9 -99.99 -9.99
2019/12/04 09:00 CST    0.72   0.55    5   10    7  57.7  63.0 1019.0 14.5  1.011 -99.9 -99.99 -9.99
2019/12/04 09:06 CST    0.71   0.53    5    4    8  58.3  63.0 1019.1 14.5  1.011 -99.9 -99.99 -9.99
2019/12/04 09:12 CST    0.71   0.51    4   11    7  58.8  63.0 1019.3 14.6  1.011 -99.9 -99.99 -9.99
2019/12/04 09:18 CST    0.70   0.48    5   11    8  59.2  63.0 1019.3 14.5  1.011 -99.9 -99.99 -9.99
2019/12/04 09:24 CST    0.69   0.51    4    3    6  59.4  63.0 1019.4 14.5  1.011 -99.9 -99.99 -9.99
2019/12/04 09:30 CST    0.69   0.56    6   15    7  59.9  63.0 1019.3 14.5  1.011 -99.9 -99.99 -9.99
2019/12/04 09:36 CST    0.68   0.51    5   20    7  60.3  63.0 1019.2 14.5  1.011 -99.9 -99.99 -9.99
2019/12/04 09:42 CST    0.68   0.43    5   17    6  60.8  63.0 1019.2 14.5  1.011 -99.9 -99.99 -9.99
2019/12/04 09:48 CST    0.67   0.41    3   10    5  61.3  63.0 1019.3 14.5  1.011 -99.9 -99.99 -9.99
2019/12/04 09:54 CST    0.66   0.48    2   44    4  61.9  63.0 1019.4 14.7  1.011 -99.9 -99.99 -9.99
2019/12/04 10:00 CST    0.66   0.50    6   42    8  62.4  63.0 1019.3 15.0  1.011 -99.9 -99.99 -9.99
2019/12/04 10:06 CST    0.65   0.44    7   35    9  63.0  63.0 1019.2 14.8  1.011 -99.9 -99.99 -9.99
2019/12/04 10:12 CST    0.65   0.45    7   39    9  63.5  63.1 1019.2 14.7  1.011 -99.9 -99.99 -9.99
2019/12/04 10:18 CST    0.64   0.44    7   32    8  63.7  63.1 1019.3 15.2  1.011 -99.9 -99.99 -9.99
2019/12/04 10:24 CST    0.64   0.54    6   35    8  64.0  63.1 1019.4 14.9  1.011 -99.9 -99.99 -9.99
2019/12/04 10:30 CST    0.63   0.41    6   45    7  64.4  63.1 1019.3 15.2  1.011 -99.9 -99.99 -9.99
2019/12/04 10:36 CST    0.63   0.47    6   45    8  64.4  63.1 1019.2 14.4  1.011 -99.9 -99.99 -9.99
2019/12/04 10:42 CST    0.62   0.35    4   75    6  64.9  63.1 1019.2 14.7  1.011 -99.9 -99.99 -9.99
2019/12/04 10:48 CST    0.62   0.35    6   66    7  64.8  63.1 1019.1 14.7  1.011 -99.9 -99.99 -9.99
2019/12/04 10:54 CST    0.61   0.44    5   71    7  65.1  63.1 1019.0 14.7  1.011 -99.9 -99.99 -9.99
2019/12/04 11:00 CST    0.61   0.45    5   67    7  65.1  63.1 1018.9 14.5  1.011 -99.9 -99.99 -9.99
2019/12/04 11:06 CST    0.61   0.34    4   59    6  65.7  63.1 1018.8 14.9  1.011 -99.9 -99.99 -9.99
2019/12/04 11:12 CST    0.60   0.44    4   67    5  65.7  63.3 1018.7 14.9  1.011 -99.9 -99.99 -9.99
2019/12/04 11:18 CST    0.60   0.29    4   69    5  65.8  63.3 1018.5 14.8  1.011 -99.9 -99.99 -9.99
2019/12/04 11:24 CST    0.59   0.34    3   69    4  66.2  63.3 1018.5 14.7  1.011 -99.9 -99.99 -9.99
2019/12/04 11:30 CST    0.59   0.33    2   62    3  66.6  63.3 1018.5 14.4  1.011 -99.9 -99.99 -9.99
2019/12/04 11:36 CST    0.59   0.32    2   72    3  67.1  63.3 1018.4 14.4  1.011 -99.9 -99.99 -9.99
2019/12/04 11:42 CST    0.59   0.35    0   53    1  67.8  63.5 1018.3 14.3  1.010 -99.9 -99.99 -9.99
2019/12/04 11:48 CST    0.58   0.34    2  263    2  67.1  63.5 1018.2 14.3  1.010 -99.9 -99.99 -9.99
2019/12/04 11:54 CST    0.58   0.27    1  282    2  67.6  63.5 1018.2 14.3  1.010 -99.9 -99.99 -9.99
2019/12/04 12:00 CST    0.58   0.24    0  305    1  68.5  63.5 1018.1 14.2  1.010 -99.9 -99.99 -9.99
2019/12/04 12:06 CST    0.58   0.31    0    2    0  69.4  63.7 1018.0 14.1  1.010 -99.9 -99.99 -9.99
2019/12/04 12:12 CST    0.58   0.33    1  333    1  68.4  63.7 1017.8 14.1  1.010 -99.9 -99.99 -9.99
2019/12/04 12:18 CST    0.58   0.29    3  316    4  67.8  63.7 1017.7 14.1  1.010 -99.9 -99.99 -9.99
2019/12/04 12:24 CST    0.57   0.25    3  320    4  68.0  63.7 1017.6 14.1  1.010 -99.9 -99.99 -9.99
2019/12/04 12:30 CST    0.57   0.25    4  318    5  68.0  63.9 1017.5 14.0  1.010 -99.9 -99.99 -9.99
2019/12/04 12:36 CST    0.57   0.24    4  311    6  68.0  63.9 1017.4 14.5  1.011 -99.9 -99.99 -9.99
2019/12/04 12:42 CST    0.57   0.32    4  324    6  68.0  63.9 1017.2 13.7  1.010 -99.9 -99.99 -9.99
2019/12/04 12:48 CST    0.57   0.27    3  346    4  68.9  63.9 1017.1 14.8  1.011 -99.9 -99.99 -9.99
2019/12/04 12:54 CST    0.57   0.25    5  321    6  68.2  63.9 1017.1 14.8  1.011 -99.9 -99.99 -9.99
2019/12/04 13:00 CST    0.57   0.22    5  311    6  68.7  63.9 1017.1 14.8  1.011 -99.9 -99.99 -9.99
2019/12/04 13:06 CST    0.57   0.23    5  305    6  68.9  63.9 1017.1 14.8  1.011 -99.9 -99.99 -9.99
2019/12/04 13:12 CST    0.57   0.22    5  303    7  68.9  63.9 1017.0 14.8  1.011 -99.9 -99.99 -9.99
2019/12/04 13:18 CST    0.57   0.23    4  317    7  69.1  63.9 1017.0 14.8  1.011 -99.9 -99.99 -9.99
2019/12/04 13:24 CST    0.56   0.21    5  309    6  69.1  63.9 1017.0 14.8  1.011 -99.9 -99.99 -9.99
2019/12/04 13:30 CST    0.56   0.21    5  306    5  69.4  63.9 1016.9 14.8  1.011 -99.9 -99.99 -9.99
2019/12/04 13:36 CST    0.56   0.22    4  303    6  69.8  63.9 1016.9 14.7  1.011 -99.9 -99.99 -9.99
2019/12/04 13:42 CST    0.56   0.19    4  319    6  69.6  63.9 1016.8 13.9  1.010 -99.9 -99.99 -9.99
2019/12/04 13:48 CST    0.56   0.20    4  334    6  70.0  64.0 1016.8 13.9  1.010 -99.9 -99.99 -9.99
2019/12/04 13:54 CST    0.56   0.21    6  345    8  70.2  64.0 1016.7 14.2  1.010 -99.9 -99.99 -9.99
2019/12/04 14:00 CST    0.55   0.21    6   16    9  70.5  64.2 1016.7 14.6  1.011 -99.9 -99.99 -9.99
2019/12/04 14:06 CST    0.55   0.18    6  336    8  70.2  64.2 1016.7 14.3  1.010 -99.9 -99.99 -9.99
2019/12/04 14:12 CST    0.55   0.16    4   14    7  70.5  64.2 1016.7 13.9  1.010 -99.9 -99.99 -9.99
2019/12/04 14:18 CST    0.55   0.21    5   10    7  71.1  64.4 1016.7 13.9  1.010 -99.9 -99.99 -9.99
2019/12/04 14:24 CST    0.55   0.17    4  337    6  70.9  64.4 1016.6 14.7  1.011 -99.9 -99.99 -9.99
2019/12/04 14:30 CST    0.54   0.12    3    2    5  70.9  64.4 1016.5 14.4  1.010 -99.9 -99.99 -9.99
2019/12/04 14:36 CST    0.54   0.15    5  345    6  71.4  64.4 1016.5 14.4  1.010 -99.9 -99.99 -9.99
2019/12/04 14:42 CST    0.54   0.14    5  355    6  71.1  64.4 1016.6 14.5  1.011 -99.9 -99.99 -9.99
2019/12/04 14:48 CST    0.53   0.17    4    6    5  71.6  64.4 1016.6 14.7  1.011 -99.9 -99.99 -9.99
2019/12/04 14:54 CST    0.53   0.09    3   11    5  71.8  64.4 1016.6 14.5  1.011 -99.9 -99.99 -9.99
2019/12/04 15:00 CST    0.53   0.13    1  107    4  72.9  64.4 1016.5 14.4  1.010 -99.9 -99.99 -9.99
2019/12/04 15:06 CST    0.52   0.17    1  101    4  72.1  64.4 1016.4 14.3  1.010 -99.9 -99.99 -9.99
2019/12/04 15:12 CST    0.52  -0.15    2  123    4  71.8  64.4 1016.4 13.9  1.010 -99.9 -99.99 -9.99
2019/12/04 15:18 CST    0.51   0.18    2  145    4  71.8  64.6 1016.4 13.8  1.010 -99.9 -99.99 -9.99
2019/12/04 15:24 CST    0.51  -0.08    3  171    4  70.7  64.6 1016.4 13.8  1.010 -99.9 -99.99 -9.99
2019/12/04 15:30 CST    0.50   0.05    3  154    4  70.0  64.4 1016.4 13.8  1.010 -99.9 -99.99 -9.99
2019/12/04 15:36 CST    0.50   0.10    3  144    4  69.8  64.2 1016.4 13.8  1.010 -99.9 -99.99 -9.99
2019/12/04 15:42 CST    0.49   0.08    4  150    5  70.0  64.4 1016.3 13.8  1.010 -99.9 -99.99 -9.99
2019/12/04 15:48 CST    0.49  -0.07    4  147    5  69.3  64.2 1016.4 13.9  1.010 -99.9 -99.99 -9.99
2019/12/04 15:54 CST    0.48  -0.04    4  145    5  69.3  64.2 1016.5 13.8  1.010 -99.9 -99.99 -9.99
2019/12/04 16:00 CST    0.47  -0.00    4  142    5  69.1  64.2 1016.6 13.8  1.010 -99.9 -99.99 -9.99
2019/12/04 16:06 CST    0.47   0.01    4  137    5  68.5  64.2 1016.6 13.8  1.010 -99.9 -99.99 -9.99
2019/12/04 16:12 CST    0.46   0.08    3  133    4  68.2  64.0 1016.7 13.8  1.010 -99.9 -99.99 -9.99
2019/12/04 16:18 CST    0.45  -0.03    4  126    5  68.0  64.0 1016.7 13.7  1.010 -99.9 -99.99 -9.99
2019/12/04 16:24 CST    0.45  -0.09    4  119    5  68.0  64.0 1016.7 13.8  1.010 -99.9 -99.99 -9.99
2019/12/04 16:30 CST    0.44  -0.04    4  123    4  67.6  64.0 1016.7 13.9  1.010 -99.9 -99.99 -9.99
2019/12/04 16:36 CST    0.43  -0.05    4  127    5  67.6  64.0 1016.7 14.5  1.011 -99.9 -99.99 -9.99
2019/12/04 16:42 CST    0.42  -0.09    3  129    4  67.3  64.0 1016.8 14.2  1.010 -99.9 -99.99 -9.99
2019/12/04 16:48 CST    0.42  -0.08    3  130    4  67.5  64.0 1016.8 14.5  1.011 -99.9 -99.99 -9.99
2019/12/04 16:54 CST    0.41  -0.10    3  143    4  67.6  64.0 1016.9 14.5  1.011 -99.9 -99.99 -9.99
2019/12/04 17:00 CST    0.40  -0.11    2  130    3  67.3  64.0 1017.0 14.5  1.011 -99.9 -99.99 -9.99
2019/12/04 17:06 CST    0.39  -0.13    2  112    2  67.5  64.0 1017.1 14.4  1.011 -99.9 -99.99 -9.99
2019/12/04 17:12 CST    0.39  -0.16    1   94    2  67.6  64.0 1017.1 14.4  1.010 -99.9 -99.99 -9.99
2019/12/04 17:18 CST    0.38  -0.12    2   81    2  67.6  64.0 1017.1 14.4  1.010 -99.9 -99.99 -9.99
2019/12/04 17:24 CST    0.37  -0.07    2   92    2  67.8  63.9 1017.1 14.4  1.011 -99.9 -99.99 -9.99
2019/12/04 17:30 CST    0.37  -0.10    1   84    2  67.8  63.7 1017.1 14.5  1.011 -99.9 -99.99 -9.99
2019/12/04 17:36 CST    0.36  -0.40    1   56    1  67.8  63.7 1017.2 14.5  1.011 -99.9 -99.99 -9.99
2019/12/04 17:42 CST    0.35  -0.13    0   35    1  67.3  63.7 1017.2 14.4  1.011 -99.9 -99.99 -9.99
2019/12/04 17:48 CST    0.35  -0.14    0   37    0  66.7  63.7 1017.3 14.4  1.011 -99.9 -99.99 -9.99
2019/12/04 17:54 CST    0.34  -0.20    0   65    0  67.1  63.7 1017.3 14.4  1.011 -99.9 -99.99 -9.99
2019/12/04 18:00 CST    0.33  -0.14    0   62    0  66.4  63.7 1017.2 14.4  1.011 -99.9 -99.99 -9.99
2019/12/04 18:06 CST    0.33  -0.34    1   54    1  65.7  63.7 1017.1 14.5  1.011 -99.9 -99.99 -9.99
2019/12/04 18:12 CST    0.32  -0.20    1   23    1  65.1  63.7 1017.2 13.7  1.010 -99.9 -99.99 -9.99
2019/12/04 18:18 CST    0.32  -0.22    0    1    1  64.2  63.7 1017.2 13.7  1.010 -99.9 -99.99 -9.99
2019/12/04 18:24 CST    0.31  -0.11    0    1    1  63.9  63.7 1017.4 13.7  1.010 -99.9 -99.99 -9.99
2019/12/04 18:30 CST    0.30  -0.23    0   21    0  63.9  63.7 1017.4 13.7  1.010 -99.9 -99.99 -9.99
2019/12/04 18:36 CST    0.30  -0.28    1   17    2  64.4  63.7 1017.6 13.7  1.010 -99.9 -99.99 -9.99
2019/12/04 18:42 CST    0.29  -0.20    1   20    1  64.4  63.7 1017.7 13.7  1.010 -99.9 -99.99 -9.99
2019/12/04 18:48 CST    0.29  -0.16    1   26    2  63.5  63.5 1017.7 13.7  1.010 -99.9 -99.99 -9.99
2019/12/04 18:54 CST    0.28  -0.21    2   46    2  63.9  63.5 1017.6 13.5  1.010 -99.9 -99.99 -9.99
2019/12/04 19:00 CST    0.27  -0.16    1   17    2  63.9  63.5 1017.6 13.5  1.010 -99.9 -99.99 -9.99
2019/12/04 19:06 CST    0.27  -0.26    1  359    2  63.3  63.5 1017.5 13.5  1.010 -99.9 -99.99 -9.99
2019/12/04 19:12 CST    0.26  -0.23    1    8    2  63.5  63.5 1017.6 13.7  1.010 -99.9 -99.99 -9.99
2019/12/04 19:18 CST    0.26  -0.14    1    1    2  63.0  63.5 1017.6 13.7  1.010 -99.9 -99.99 -9.99
2019/12/04 19:24 CST    0.25  -0.14    0   42    1  62.4  63.5 1017.5 13.7  1.010 -99.9 -99.99 -9.99
2019/12/04 19:30 CST    0.25  -0.21    1   42    2  61.9  63.5 1017.4 13.7  1.010 -99.9 -99.99 -9.99
2019/12/04 19:36 CST    0.24  -0.24    1   59    2  63.0  63.5 1017.4 14.0  1.010 -99.9 -99.99 -9.99
2019/12/04 19:42 CST    0.24  -0.19    2   50    2  63.1  63.5 1017.5 14.1  1.010 -99.9 -99.99 -9.99
2019/12/04 19:48 CST    0.23  -0.22    2   51    2  63.1  63.5 1017.5 14.0  1.010 -99.9 -99.99 -9.99
2019/12/04 19:54 CST    0.23  -0.17    2   54    3  63.1  63.5 1017.5 13.9  1.010 -99.9 -99.99 -9.99
2019/12/04 20:00 CST    0.22  -0.15    3   51    3  62.6  63.5 1017.5 14.0  1.010 -99.9 -99.99 -9.99
2019/12/04 20:06 CST    0.22  -0.16    3   59    4  62.8  63.5 1017.7 14.0  1.010 -99.9 -99.99 -9.99
2019/12/04 20:12 CST    0.22  -0.25    4   99    4  61.3  63.5 1017.7 14.0  1.010 -99.9 -99.99 -9.99
2019/12/04 20:18 CST    0.22  -0.21    4   87    5  61.9  63.5 1017.6 14.0  1.010 -99.9 -99.99 -9.99
2019/12/04 20:24 CST    0.22  -0.21    4   82    4  61.7  63.5 1017.6 14.0  1.010 -99.9 -99.99 -9.99
2019/12/04 20:30 CST    0.22  -0.11    4   95    4  61.7  63.5 1017.5 14.0  1.010 -99.9 -99.99 -9.99
2019/12/04 20:36 CST    0.22  -0.12    4   93    5  61.5  63.5 1017.5 14.0  1.010 -99.9 -99.99 -9.99
2019/12/04 20:42 CST    0.22  -0.15    4   98    4  61.2  63.5 1017.5 13.9  1.010 -99.9 -99.99 -9.99
2019/12/04 20:48 CST    0.22  -0.12    4  107    4  61.2  63.5 1017.6 13.9  1.010 -99.9 -99.99 -9.99
2019/12/04 20:54 CST    0.23  -0.11    4  110    4  60.8  63.5 1017.6 13.9  1.010 -99.9 -99.99 -9.99
2019/12/04 21:00 CST    0.23  -0.10    4   98    5  61.0  63.5 1017.6 13.9  1.010 -99.9 -99.99 -9.99
2019/12/04 21:06 CST    0.24  -0.06    4   95    4  61.2  63.5 1017.6 13.8  1.010 -99.9 -99.99 -9.99
2019/12/04 21:12 CST    0.24  -0.07    3   78    4  61.2  63.5 1017.6 13.8  1.010 -99.9 -99.99 -9.99
2019/12/04 21:18 CST    0.25  -0.07    4   82    4  61.0  63.5 1017.6 13.8  1.010 -99.9 -99.99 -9.99
2019/12/04 21:24 CST    0.26  -0.10    4   82    5  61.0  63.5 1017.6 13.8  1.010 -99.9 -99.99 -9.99
2019/12/04 21:30 CST    0.27  -0.08    4   84    5  60.8  63.5 1017.7 13.7  1.010 -99.9 -99.99 -9.99
2019/12/04 21:36 CST    0.27  -0.00    4   89    5  60.8  63.5 1017.7 13.8  1.010 -99.9 -99.99 -9.99
2019/12/04 21:42 CST    0.28  -0.04    4   84    5  60.8  63.3 1017.7 13.8  1.010 -99.9 -99.99 -9.99
2019/12/04 21:48 CST    0.29   0.03    4   83    4  60.4  63.3 1017.7 13.8  1.010 -99.9 -99.99 -9.99
2019/12/04 21:54 CST    0.30   0.02    4   86    4  60.1  63.5 1017.7 13.8  1.010 -99.9 -99.99 -9.99
2019/12/04 22:00 CST    0.31   0.05    4  102    4  59.9  63.5 1017.7 13.8  1.010 -99.9 -99.99 -9.99
2019/12/04 22:06 CST    0.33   0.07    2  117    4  59.9  63.3 1017.7 13.7  1.010 -99.9 -99.99 -9.99
2019/12/04 22:12 CST    0.34   0.02    2  148    3  59.9  63.3 1017.7 13.7  1.010 -99.9 -99.99 -9.99
2019/12/04 22:18 CST    0.35   0.10    1  155    2  59.7  63.5 1017.7 13.7  1.010 -99.9 -99.99 -9.99
2019/12/04 22:24 CST    0.36   0.14    1  200    2  59.9  63.5 1017.9 13.8  1.010 -99.9 -99.99 -9.99
2019/12/04 22:30 CST    0.37   0.12    2  150    3  59.9  63.5 1017.8 13.8  1.010 -99.9 -99.99 -9.99
2019/12/04 22:36 CST    0.39   0.12    2  153    3  59.9  63.5 1017.9 13.8  1.010 -99.9 -99.99 -9.99
2019/12/04 22:42 CST    0.40   0.14    2  126    2  60.1  63.5 1017.8 13.8  1.010 -99.9 -99.99 -9.99
2019/12/04 22:48 CST    0.41   0.16    2  131    2  60.1  63.5 1017.8 13.8  1.010 -99.9 -99.99 -9.99
2019/12/04 22:54 CST    0.42   0.19    2  128    3  60.1  63.5 1017.7 13.9  1.010 -99.9 -99.99 -9.99
2019/12/04 23:00 CST    0.44   0.24    2  108    2  60.3  63.5 1017.7 14.0  1.010 -99.9 -99.99 -9.99
2019/12/04 23:06 CST    0.45   0.20    1  110    2  59.9  63.5 1017.8 13.7  1.010 -99.9 -99.99 -9.99
2019/12/04 23:12 CST    0.46   0.23    2  115    2  59.9  63.5 1017.8 13.7  1.010 -99.9 -99.99 -9.99
2019/12/04 23:18 CST    0.48   0.26    2  140    2  59.9  63.5 1017.8 13.7  1.010 -99.9 -99.99 -9.99
2019/12/04 23:24 CST    0.49   0.16    2  132    3  59.9  63.5 1017.6 13.9  1.010 -99.9 -99.99 -9.99
2019/12/04 23:30 CST    0.51   0.31    2  136    3  59.9  63.5 1017.5 14.0  1.010 -99.9 -99.99 -9.99
2019/12/04 23:36 CST    0.52   0.25    2  103    2  59.7  63.5 1017.5 14.0  1.010 -99.9 -99.99 -9.99
2019/12/04 23:42 CST    0.54   0.32    2   93    2  59.4  63.5 1017.6 14.0  1.010 -99.9 -99.99 -9.99
2019/12/04 23:48 CST    0.55   0.37    2   86    2  59.2  63.5 1017.6 14.0  1.010 -99.9 -99.99 -9.99
2019/12/04 23:54 CST    0.57   0.44    2   73    2  59.2  63.5 1017.6 14.1  1.010 -99.9 -99.99 -9.99
2019/12/05 00:00 CST    0.58   0.28    2   79    3  59.0  63.5 1017.4 14.3  1.011 -99.9 -99.99 -9.99
2019/12/05 00:06 CST    0.60   0.34    2   60    3  58.8  63.5 1017.5 14.3  1.010 -99.9 -99.99 -9.99
2019/12/05 00:12 CST    0.62   0.44    2   64    2  58.8  63.5 1017.4 14.3  1.011 -99.9 -99.99 -9.99
2019/12/05 00:18 CST    0.63   0.49    2   69    2  58.6  63.5 1017.4 14.3  1.010 -99.9 -99.99 -9.99
2019/12/05 00:24 CST    0.65   0.47    1   56    2  58.6  63.5 1017.4 14.4  1.011 -99.9 -99.99 -9.99
2019/12/05 00:30 CST    0.67   0.46    1   92    2  58.5  63.5 1017.3 14.4  1.011 -99.9 -99.99 -9.99
2019/12/05 00:36 CST    0.68   0.48    2  108    3  58.5  63.5 1017.3 14.4  1.011 -99.9 -99.99 -9.99
2019/12/05 00:42 CST    0.70   0.54    1   86    3  58.6  63.5 1017.3 14.5  1.011 -99.9 -99.99 -9.99
2019/12/05 00:48 CST    0.72   0.62    1  105    2  58.6  63.5 1017.2 14.5  1.011 -99.9 -99.99 -9.99
2019/12/05 00:54 CST    0.73   0.49    2   95    2  58.6  63.5 1017.2 14.5  1.011 -99.9 -99.99 -9.99
2019/12/05 01:00 CST    0.75   0.57    1   98    2  58.8  63.5 1017.2 14.5  1.011 -99.9 -99.99 -9.99
2019/12/05 01:06 CST    0.77   0.62    2   93    2  58.8  63.7 1017.1 14.4  1.011 -99.9 -99.99 -9.99
2019/12/05 01:12 CST    0.78   0.64    2  119    2  58.8  63.7 1017.1 14.6  1.011 -99.9 -99.99 -9.99
2019/12/05 01:18 CST    0.80   0.66    2  121    2  58.6  63.7 1017.1 15.1  1.011 -99.9 -99.99 -9.99
2019/12/05 01:24 CST    0.82   0.64    1  118    2  58.6  63.7 1017.2 14.5  1.011 -99.9 -99.99 -9.99
2019/12/05 01:30 CST    0.83   0.68    1   99    2  58.6  63.7 1017.3 14.9  1.011 -99.9 -99.99 -9.99
2019/12/05 01:36 CST    0.85   0.67    1  103    2  58.6  63.5 1017.3 14.6  1.011 -99.9 -99.99 -9.99
2019/12/05 01:42 CST    0.86   0.71    1  100    2  58.8  63.7 1017.4 14.6  1.011 -99.9 -99.99 -9.99
2019/12/05 01:48 CST    0.88   0.74    2   89    2  58.8  63.7 1017.4 14.6  1.011 -99.9 -99.99 -9.99
2019/12/05 01:54 CST    0.89   0.72    2  106    2  59.0  63.7 1017.3 14.7  1.011 -99.9 -99.99 -9.99
2019/12/05 02:00 CST    0.91   0.76    2  121    2  58.8  63.7 1017.3 14.7  1.011 -99.9 -99.99 -9.99
2019/12/05 02:06 CST    0.92   0.72    2  128    3  58.8  63.7 1017.1 14.7  1.011 -99.9 -99.99 -9.99
2019/12/05 02:12 CST    0.93   0.78    1  117    3  58.6  63.7 1017.2 14.7  1.011 -99.9 -99.99 -9.99
2019/12/05 02:18 CST    0.94   0.75    3  124    4  59.0  63.7 1017.2 14.7  1.011 -99.9 -99.99 -9.99
2019/12/05 02:24 CST    0.96   0.80    3  121    4  58.6  63.7 1017.2 14.8  1.011 -99.9 -99.99 -9.99
2019/12/05 02:30 CST    0.97   0.87    3  125    4  58.8  63.7 1017.3 14.8  1.011 -99.9 -99.99 -9.99
2019/12/05 02:36 CST    0.98   0.83    4  113    4  59.0  63.7 1017.2 14.6  1.011 -99.9 -99.99 -9.99
2019/12/05 02:42 CST    0.99   0.80    4  116    4  58.8  63.5 1017.2 14.8  1.011 -99.9 -99.99 -9.99
2019/12/05 02:48 CST    1.00   0.89    3  123    4  58.6  63.7 1017.2 14.8  1.011 -99.9 -99.99 -9.99
2019/12/05 02:54 CST    1.01   0.89    2  126    3  58.6  63.7 1017.2 14.8  1.011 -99.9 -99.99 -9.99
2019/12/05 03:00 CST    1.01   0.76    3  136    4  59.2  63.7 1017.2 14.7  1.011 -99.9 -99.99 -9.99
2019/12/05 03:06 CST    1.02   0.91    3  145    3  59.4  63.7 1017.2 14.8  1.011 -99.9 -99.99 -9.99
2019/12/05 03:12 CST    1.03   0.83    2  147    3  59.4  63.9 1017.2 14.8  1.011 -99.9 -99.99 -9.99
2019/12/05 03:18 CST    1.04   0.88    2  151    3  59.4  63.9 1017.3 14.8  1.011 -99.9 -99.99 -9.99
2019/12/05 03:24 CST    1.04   0.82    2  150    3  59.4  63.9 1017.4 14.8  1.011 -99.9 -99.99 -9.99
2019/12/05 03:30 CST    1.05   0.88    1  170    2  59.4  63.9 1017.5 14.7  1.011 -99.9 -99.99 -9.99
2019/12/05 03:36 CST    1.05   0.89    1  156    2  59.4  63.9 1017.5 14.7  1.011 -99.9 -99.99 -9.99
2019/12/05 03:42 CST    1.05   0.97    1  180    1  59.4  63.9 1017.5 14.7  1.011 -99.9 -99.99 -9.99
2019/12/05 03:48 CST    1.06   0.96    1  181    2  59.5  63.9 1017.5 14.7  1.011 -99.9 -99.99 -9.99
2019/12/05 03:54 CST    1.06   0.90    2  182    3  59.5  63.9 1017.4 15.0  1.011 -99.9 -99.99 -9.99
2019/12/05 04:00 CST    1.06   0.96    2  160    2  59.7  63.9 1017.4 15.6  1.011 -99.9 -99.99 -9.99
2019/12/05 04:06 CST    1.06   0.91    1  154    3  59.7  63.9 1017.6 15.3  1.011 -99.9 -99.99 -9.99
2019/12/05 04:12 CST    1.06   0.98    1  135    1  59.9  63.9 1017.4 14.6  1.011 -99.9 -99.99 -9.99
2019/12/05 04:18 CST    1.06   0.86    2  102    2  59.9  63.9 1017.3 14.6  1.011 -99.9 -99.99 -9.99
2019/12/05 04:24 CST    1.06   0.95    2  102    2  59.9  63.9 1017.2 14.7  1.011 -99.9 -99.99 -9.99
2019/12/05 04:30 CST    1.06   0.91    3  105    3  59.5  63.9 1017.2 14.7  1.011 -99.9 -99.99 -9.99
2019/12/05 04:36 CST    1.05   0.95    4   91    4  59.0  63.9 1016.9 14.7  1.011 -99.9 -99.99 -9.99
2019/12/05 04:42 CST    1.05   0.98    4   89    5  58.3  63.9 1016.9 14.9  1.011 -99.9 -99.99 -9.99
2019/12/05 04:48 CST    1.05   0.82    3   86    4  57.7  63.9 1017.0 14.9  1.011 -99.9 -99.99 -9.99
2019/12/05 04:54 CST    1.04   0.94    3   81    4  57.7  63.9 1016.9 14.8  1.011 -99.9 -99.99 -9.99
2019/12/05 05:00 CST    1.04   1.06    3   86    4  57.9  63.7 1016.9 14.8  1.011 -99.9 -99.99 -9.99
2019/12/05 05:06 CST    1.03   0.76    3   73    3  58.1  63.7 1017.0 14.6  1.011 -99.9 -99.99 -9.99
2019/12/05 05:12 CST    1.03   0.97    3   66    4  58.6  63.5 1017.1 14.7  1.011 -99.9 -99.99 -9.99
2019/12/05 05:18 CST    1.02   0.88    2   81    3  58.5  63.5 1017.2 14.6  1.011 -99.9 -99.99 -9.99
2019/12/05 05:24 CST    1.01   0.72    3   72    4  58.5  63.5 1017.1 14.5  1.011 -99.9 -99.99 -9.99
2019/12/05 05:30 CST    1.01   0.97    3   75    5  58.6  63.3 1017.3 14.5  1.011 -99.9 -99.99 -9.99
2019/12/05 05:36 CST    1.00   0.88    2   78    3  58.3  63.3 1017.4 14.6  1.011 -99.9 -99.99 -9.99
2019/12/05 05:42 CST    0.99   0.86    2   76    3  58.3  63.3 1017.5 15.1  1.011 -99.9 -99.99 -9.99
2019/12/05 05:48 CST    0.98   0.98    2   84    3  58.1  63.3 1017.5 14.3  1.011 -99.9 -99.99 -9.99
2019/12/05 05:54 CST    0.97   0.88    3   98    4  58.1  63.3 1017.5 14.4  1.011 -99.9 -99.99 -9.99
2019/12/05 06:00 CST    0.97   0.87    2   73    3  58.3  63.3 1017.6 14.5  1.011 -99.9 -99.99 -9.99
2019/12/05 06:06 CST    0.96   0.92    2   85    2  58.1  63.3 1017.6 14.3  1.011 -99.9 -99.99 -9.99
2019/12/05 06:12 CST    0.95   0.85    3  108    4  58.1  63.3 1017.6 14.4  1.011 -99.9 -99.99 -9.99
2019/12/05 06:18 CST    0.94   0.92    4   99    4  58.1  63.3 1017.6 14.4  1.011 -99.9 -99.99 -9.99
2019/12/05 06:24 CST    0.93   0.90    3  103    4  57.9  63.3 1017.7 14.6  1.011 -99.9 -99.99 -9.99
2019/12/05 06:30 CST    0.92   0.83    3   87    4  58.1  63.1 1017.8 14.3  1.011 -99.9 -99.99 -9.99
2019/12/05 06:36 CST    0.91   0.88    4   92    5  58.1  63.1 1017.7 15.0  1.011 -99.9 -99.99 -9.99
2019/12/05 06:42 CST    0.90   0.87    4   87    5  57.9  63.1 1017.7 14.8  1.011 -99.9 -99.99 -9.99
2019/12/05 06:48 CST    0.88   0.87    2   81    5  57.9  63.1 1017.9 15.1  1.011 -99.9 -99.99 -9.99
2019/12/05 06:54 CST    0.87   0.85    2   76    3  57.9  63.1 1018.0 15.2  1.011 -99.9 -99.99 -9.99
2019/12/05 07:00 CST    0.86   0.79    3   73    4  58.1  63.1 1018.1 15.2  1.011 -99.9 -99.99 -9.99
2019/12/05 07:06 CST    0.85   0.81    4   67    4  58.1  63.1 1018.3 15.2  1.011 -99.9 -99.99 -9.99
2019/12/05 07:12 CST    0.83   0.82    3   59    4  58.1  63.1 1018.3 15.2  1.011 -99.9 -99.99 -9.99
2019/12/05 07:18 CST    0.82   0.80    3   72    4  57.7  63.1 1018.2 15.2  1.011 -99.9 -99.99 -9.99
2019/12/05 07:24 CST    0.81   0.78    2   86    4  57.6  63.1 1018.2 15.2  1.011 -99.9 -99.99 -9.99
2019/12/05 07:30 CST    0.79   0.69    2   87    3  57.6  63.1 1018.3 15.1  1.011 -99.9 -99.99 -9.99
2019/12/05 07:36 CST    0.78   0.72    2   97    3  57.9  63.3 1018.5 15.1  1.011 -99.9 -99.99 -9.99
2019/12/05 07:42 CST    0.76   0.78    2   91    4  58.3  63.3 1018.5 15.1  1.011 -99.9 -99.99 -9.99
2019/12/05 07:48 CST    0.75   0.76    4   92    5  58.6  63.3 1018.4 15.1  1.011 -99.9 -99.99 -9.99
2019/12/05 07:54 CST    0.74   0.76    4   79    5  58.8  63.3 1018.4 15.1  1.011 -99.9 -99.99 -9.99
2019/12/05 08:00 CST    0.72   0.66    4   93    6  58.8  63.3 1018.5 15.1  1.011 -99.9 -99.99 -9.99
2019/12/05 08:06 CST    0.71   0.69    4   78    6  59.0  63.3 1018.6 15.1  1.011 -99.9 -99.99 -9.99
2019/12/05 08:12 CST    0.69   0.70    4   79    5  59.0  63.3 1018.6 15.1  1.011 -99.9 -99.99 -9.99
2019/12/05 08:18 CST    0.68   0.68    4   83    5  58.8  63.3 1018.7 15.1  1.011 -99.9 -99.99 -9.99
2019/12/05 08:24 CST    0.66   0.69    4   81    5  59.0  63.3 1018.5 15.2  1.011 -99.9 -99.99 -9.99
2019/12/05 08:30 CST    0.65   0.63    4   87    5  59.5  63.3 1018.7 15.1  1.011 -99.9 -99.99 -9.99
2019/12/05 08:36 CST    0.64   0.58    3   89    4  60.3  63.3 1018.8 15.1  1.011 -99.9 -99.99 -9.99
2019/12/05 08:42 CST    0.63   0.69    3   97    4  60.6  63.3 1018.8 15.1  1.011 -99.9 -99.99 -9.99
2019/12/05 08:48 CST    0.61   0.58    4   95    7  61.2  63.3 1018.9 15.1  1.011 -99.9 -99.99 -9.99
2019/12/05 08:54 CST    0.60   0.64    5   86    6  61.3  63.3 1018.9 15.1  1.011 -99.9 -99.99 -9.99
2019/12/05 09:00 CST    0.59   0.54    7   87    9  61.3  63.3 1018.9 15.1  1.011 -99.9 -99.99 -9.99
2019/12/05 09:06 CST    0.58   0.51    6   91    7  61.9  63.3 1019.1 15.1  1.011 -99.9 -99.99 -9.99
2019/12/05 09:12 CST    0.57   0.60    7   91    8  62.4  63.3 1019.1 14.5  1.011 -99.9 -99.99 -9.99
2019/12/05 09:18 CST    0.56   0.63    7  101    8  62.8  63.3 1019.2 14.2  1.010 -99.9 -99.99 -9.99
2019/12/05 09:24 CST    0.56   0.56    9  100   11  63.0  63.3 1019.2 14.9  1.011 -99.9 -99.99 -9.99
2019/12/05 09:30 CST    0.55   0.46    9  104   12  63.5  63.3 1019.2 14.4  1.011 -99.9 -99.99 -9.99
2019/12/05 09:36 CST    0.54   0.55   10  105   12  63.7  63.3 1019.2 14.5  1.011 -99.9 -99.99 -9.99
2019/12/05 09:42 CST    0.53   0.38   10  110   12  64.2  63.3 1019.2 14.6  1.011 -99.9 -99.99 -9.99
2019/12/05 09:48 CST    0.53   0.48    9  117   13  64.4  63.3 1019.2 14.3  1.011 -99.9 -99.99 -9.99
2019/12/05 09:54 CST    0.52   0.46    8  119   13  64.4  63.3 1019.4 14.3  1.011 -99.9 -99.99 -9.99
2019/12/05 10:00 CST    0.52   0.45   11  119   13  64.0  63.3 1019.3 14.3  1.011 -99.9 -99.99 -9.99
2019/12/05 10:06 CST    0.51   0.53   11  116   13  64.2  63.3 1019.3 14.3  1.011 -99.9 -99.99 -9.99
2019/12/05 10:12 CST    0.51   0.56    9  118   13  64.2  63.5 1019.3 14.4  1.011 -99.9 -99.99 -9.99
2019/12/05 10:18 CST    0.50   0.48   10  122   13  64.2  63.5 1019.3 14.4  1.011 -99.9 -99.99 -9.99
2019/12/05 10:24 CST    0.50   0.52   10  122   13  64.8  63.5 1019.2 14.5  1.011 -99.9 -99.99 -9.99
2019/12/05 10:30 CST    0.49   0.43   11  118   14  65.1  63.5 1019.0 14.5  1.011 -99.9 -99.99 -9.99
2019/12/05 10:36 CST    0.49   0.54   11  117   14  65.5  63.5 1018.9 14.5  1.011 -99.9 -99.99 -9.99
2019/12/05 10:42 CST    0.49   0.26   10  115   13  65.5  63.5 1019.0 14.5  1.011 -99.9 -99.99 -9.99
2019/12/05 10:48 CST    0.48   0.41    8  116   12  65.7  63.5 1018.8 14.5  1.011 -99.9 -99.99 -9.99
2019/12/05 10:54 CST    0.48   0.42   10  125   12  66.2  63.7 1019.0 14.5  1.011 -99.9 -99.99 -9.99
2019/12/05 11:00 CST    0.48   0.56   10  129   13  66.4  63.7 1019.0 14.6  1.011 -99.9 -99.99 -9.99
2019/12/05 11:06 CST    0.47   0.40   10  130   12  66.7  63.7 1018.9 14.6  1.011 -99.9 -99.99 -9.99
2019/12/05 11:12 CST    0.47   0.44   10  130   12  67.1  63.7 1018.8 14.5  1.011 -99.9 -99.99 -9.99
2019/12/05 11:18 CST    0.47   0.50   11  131   13  66.9  63.9 1018.8 14.5  1.011 -99.9 -99.99 -9.99
2019/12/05 11:24 CST    0.47   0.42    9  130   13  67.1  63.9 1018.7 15.3  1.011 -99.9 -99.99 -9.99
2019/12/05 11:30 CST    0.46   0.49   10  133   12  66.9  63.9 1018.7 14.6  1.011 -99.9 -99.99 -9.99
2019/12/05 11:36 CST    0.46   0.39   10  132   11  66.9  63.9 1018.5 14.6  1.011 -99.9 -99.99 -9.99
2019/12/05 11:42 CST    0.46   0.46    8  131   11  67.3  64.0 1018.6 14.5  1.011 -99.9 -99.99 -9.99
2019/12/05 11:48 CST    0.46   0.43   10  133   11  67.5  64.0 1018.5 14.6  1.011 -99.9 -99.99 -9.99
2019/12/05 11:54 CST    0.46   0.53   11  129   12  67.5  63.9 1018.2 14.8  1.011 -99.9 -99.99 -9.99
2019/12/05 12:00 CST    0.46   0.46    9  123   12  67.5  63.9 1018.1 15.2  1.011 -99.9 -99.99 -9.99
2019/12/05 12:06 CST    0.46   0.56   11  125   13  67.6  64.0 1018.0 15.5  1.011 -99.9 -99.99 -9.99
2019/12/05 12:12 CST    0.46   0.51   10  123   12  67.5  64.0 1017.9 14.8  1.011 -99.9 -99.99 -9.99
2019/12/05 12:18 CST    0.46   0.41   11  130   13  67.5  63.9 1017.7 14.9  1.011 -99.9 -99.99 -9.99
2019/12/05 12:24 CST    0.46   0.36   11  127   13  67.5  64.0 1017.7 14.9  1.011 -99.9 -99.99 -9.99
2019/12/05 12:30 CST    0.46   0.32   11  131   13  67.8  64.0 1017.5 14.8  1.011 -99.9 -99.99 -9.99
2019/12/05 12:36 CST    0.46   0.47   11  130   14  67.6  64.0 1017.3 14.8  1.011 -99.9 -99.99 -9.99
2019/12/05 12:42 CST    0.47   0.56    9  120   13  67.6  64.0 1017.3 15.6  1.011 -99.9 -99.99 -9.99
2019/12/05 12:48 CST    0.47   0.46   12  131   14  67.8  64.0 1017.1 15.6  1.011 -99.9 -99.99 -9.99
2019/12/05 12:54 CST    0.47   0.43   11  131   15  68.2  64.0 1017.0 15.6  1.011 -99.9 -99.99 -9.99
2019/12/05 13:00 CST    0.48   0.57   10  131   14  68.5  64.0 1017.0 15.6  1.011 -99.9 -99.99 -9.99
2019/12/05 13:06 CST    0.48   0.26   10  134   13  68.5  64.0 1016.9 15.6  1.011 -99.9 -99.99 -9.99
2019/12/05 13:12 CST    0.49   0.70   10  137   13  68.4  64.0 1016.8 15.6  1.011 -99.9 -99.99 -9.99
2019/12/05 13:18 CST    0.49   0.27   10  132   14  68.2  64.0 1016.7 15.6  1.011 -99.9 -99.99 -9.99
2019/12/05 13:24 CST    0.50   0.41   12  129   14  67.8  64.2 1016.6 15.5  1.011 -99.9 -99.99 -9.99
2019/12/05 13:30 CST    0.50   0.44   13  128   15  68.0  64.0 1016.5 15.6  1.011 -99.9 -99.99 -9.99
2019/12/05 13:36 CST    0.51   0.53   12  131   14  67.5  64.0 1016.5 15.7  1.011 -99.9 -99.99 -9.99
2019/12/05 13:42 CST    0.51   0.50   11  134   13  67.5  64.0 1016.6 15.7  1.012 -99.9 -99.99 -9.99
2019/12/05 13:48 CST    0.51   0.53   11  133   13  66.9  64.0 1016.5 15.7  1.012 -99.9 -99.99 -9.99
2019/12/05 13:54 CST    0.52   0.47   12  128   14  67.1  64.0 1016.2 15.7  1.012 -99.9 -99.99 -9.99
2019/12/05 14:00 CST    0.52   0.45   12  130   15  66.9  64.0 1016.2 15.7  1.012 -99.9 -99.99 -9.99
2019/12/05 14:06 CST    0.53   0.47   11  132   14  66.9  64.0 1016.2 15.7  1.012 -99.9 -99.99 -9.99
2019/12/05 14:12 CST    0.53   0.49   11  133   13  66.9  64.0 1016.0 15.8  1.012 -99.9 -99.99 -9.99
2019/12/05 14:18 CST    0.54   0.54   12  129   14  66.9  64.0 1015.9 15.8  1.012 -99.9 -99.99 -9.99
2019/12/05 14:24 CST    0.54   0.46   11  134   15  67.6  64.0 1016.0 16.0  1.012 -99.9 -99.99 -9.99
2019/12/05 14:30 CST    0.54   0.53   13  130   16  67.6  63.9 1015.9 16.1  1.012 -99.9 -99.99 -9.99
2019/12/05 14:36 CST    0.55   0.49   12  133   15  67.8  64.0 1015.8 16.1  1.012 -99.9 -99.99 -9.99
2019/12/05 14:42 CST    0.55   0.52   12  130   14  67.8  64.0 1015.7 16.0  1.012 -99.9 -99.99 -9.99
2019/12/05 14:48 CST    0.55   0.64   12  131   15  67.3  64.0 1015.6 16.0  1.012 -99.9 -99.99 -9.99
2019/12/05 14:54 CST    0.56   0.56   11  132   15  67.1  64.0 1015.7 16.1  1.012 -99.9 -99.99 -9.99
2019/12/05 15:00 CST    0.56   0.57   11  131   14  67.1  64.0 1015.7 16.1  1.012 -99.9 -99.99 -9.99
2019/12/05 15:06 CST    0.56   0.57   11  135   13  67.1  64.0 1015.8 16.1  1.012 -99.9 -99.99 -9.99
2019/12/05 15:12 CST    0.56   0.57   11  130   13  67.3  64.0 1015.6 16.1  1.012 -99.9 -99.99 -9.99
2019/12/05 15:18 CST    0.56   0.57   11  135   13  67.5  64.0 1015.6 16.1  1.012 -99.9 -99.99 -9.99
2019/12/05 15:24 CST    0.57   0.62   12  140   14  68.0  64.0 1015.5 16.1  1.012 -99.9 -99.99 -9.99
2019/12/05 15:30 CST    0.57   0.46   11  137   15  68.0  64.0 1015.4 16.1  1.012 -99.9 -99.99 -9.99
2019/12/05 15:36 CST    0.57   0.67   10  134   13  67.6  64.0 1015.5 16.1  1.012 -99.9 -99.99 -9.99
2019/12/05 15:42 CST    0.57   0.63    8  134   11  67.3  64.0 1015.6 16.1  1.012 -99.9 -99.99 -9.99
2019/12/05 15:48 CST    0.57   0.59    9  125   10  67.5  64.0 1015.6 16.1  1.012 -99.9 -99.99 -9.99
2019/12/05 15:54 CST    0.57   0.61   10  129   11  67.3  64.0 1015.6 16.1  1.012 -99.9 -99.99 -9.99
2019/12/05 16:00 CST    0.57   0.62    8  133   10  67.6  64.0 1015.7 16.1  1.012 -99.9 -99.99 -9.99
2019/12/05 16:06 CST    0.57   0.67    8  135   10  67.6  64.0 1015.7 16.1  1.012 -99.9 -99.99 -9.99
2019/12/05 16:12 CST    0.57   0.70    8  137   10  67.6  64.0 1015.6 16.1  1.012 -99.9 -99.99 -9.99
2019/12/05 16:18 CST    0.57   0.62    8  137   11  67.5  64.0 1015.6 16.1  1.012 -99.9 -99.99 -9.99
2019/12/05 16:24 CST    0.57   0.60    9  139   11  67.5  64.0 1015.6 16.1  1.012 -99.9 -99.99 -9.99
2019/12/05 16:30 CST    0.57   0.61    8  138   12  67.1  64.0 1015.6 16.1  1.012 -99.9 -99.99 -9.99
2019/12/05 16:36 CST    0.56   0.69    8  131   10  66.6  64.0 1015.7 16.1  1.012 -99.9 -99.99 -9.99
2019/12/05 16:42 CST    0.56   0.64    8  135   10  66.2  64.0 1015.7 16.1  1.012 -99.9 -99.99 -9.99
2019/12/05 16:48 CST    0.56   0.59    8  133   10  66.0  64.0 1015.6 16.1  1.012 -99.9 -99.99 -9.99
2019/12/05 16:54 CST    0.56   0.58    8  137    9  65.8  64.0 1015.7 16.1  1.012 -99.9 -99.99 -9.99
2019/12/05 17:00 CST    0.55   0.62    7  133    8  65.5  64.0 1015.7 16.2  1.012 -99.9 -99.99 -9.99
2019/12/05 17:06 CST    0.55   0.64    7  137    8  65.3  64.0 1015.6 16.2  1.012 -99.9 -99.99 -9.99
2019/12/05 17:12 CST    0.55   0.63    6  134    8  65.1  64.0 1015.6 16.2  1.012 -99.9 -99.99 -9.99
2019/12/05 17:18 CST    0.54   0.58    6  136    8  64.9  64.0 1015.6 16.2  1.012 -99.9 -99.99 -9.99
2019/12/05 17:24 CST    0.54   0.61    6  133    9  64.9  64.0 1015.6 16.2  1.012 -99.9 -99.99 -9.99
2019/12/05 17:30 CST    0.53   0.63    7  131    8  64.8  64.0 1015.5 16.2  1.012 -99.9 -99.99 -9.99
2019/12/05 17:36 CST    0.53   0.59    7  128    8  64.8  64.0 1015.7 16.2  1.012 -99.9 -99.99 -9.99
2019/12/05 17:42 CST    0.52   0.61    7  124    8  64.6  64.0 1015.7 16.2  1.012 -99.9 -99.99 -9.99
2019/12/05 17:48 CST    0.52   0.60    7  128    8  64.6  64.0 1015.8 16.2  1.012 -99.9 -99.99 -9.99
2019/12/05 17:54 CST    0.52   0.69    7  128    8  64.6  64.0 1015.9 16.2  1.012 -99.9 -99.99 -9.99
2019/12/05 18:00 CST    0.51   0.61    6  127    8  64.4  64.0 1016.0 16.1  1.012 -99.9 -99.99 -9.99
2019/12/05 18:06 CST    0.51   0.61    5  117    6  64.4  64.0 1016.2 16.1  1.012 -99.9 -99.99 -9.99
2019/12/05 18:12 CST    0.50   0.58    4  119    5  64.0  64.0 1016.1 16.1  1.012 -99.9 -99.99 -9.99
2019/12/05 18:18 CST    0.50   0.65    4  119    5  63.9  64.0 1016.2 16.1  1.012 -99.9 -99.99 -9.99
2019/12/05 18:24 CST    0.49   0.63    5  114    6  63.9  64.0 1016.2 16.1  1.012 -99.9 -99.99 -9.99
2019/12/05 18:30 CST    0.49   0.60    4  104    4  63.5  64.0 1016.3 16.1  1.012 -99.9 -99.99 -9.99
2019/12/05 18:36 CST    0.48   0.58    4  112    5  63.5  64.0 1016.3 16.0  1.012 -99.9 -99.99 -9.99
2019/12/05 18:42 CST    0.48   0.60    4  119    5  63.5  64.0 1016.3 16.0  1.012 -99.9 -99.99 -9.99
2019/12/05 18:48 CST    0.47   0.58    4  119    6  63.5  64.2 1016.2 16.0  1.012 -99.9 -99.99 -9.99
2019/12/05 18:54 CST    0.47   0.62    4  120    5  63.5  64.2 1016.4 16.0  1.012 -99.9 -99.99 -9.99
2019/12/05 19:00 CST    0.46   0.60    5  129    6  63.5  64.2 1016.2 16.0  1.012 -99.9 -99.99 -9.99
2019/12/05 19:06 CST    0.46   0.68    4  128    6  63.5  64.2 1016.3 16.0  1.012 -99.9 -99.99 -9.99
2019/12/05 19:12 CST    0.45   0.47    4  130    6  63.3  64.2 1016.4 16.0  1.012 -99.9 -99.99 -9.99
2019/12/05 19:18 CST    0.45   0.62    4  129    5  63.3  64.2 1016.3 16.0  1.012 -99.9 -99.99 -9.99
2019/12/05 19:24 CST    0.44   0.54    4  118    7  63.3  64.2 1016.3 16.0  1.012 -99.9 -99.99 -9.99
2019/12/05 19:30 CST    0.44   0.62    3  125    5  63.1  64.2 1016.5 15.9  1.012 -99.9 -99.99 -9.99
2019/12/05 19:36 CST    0.43   0.67    3  128    6  63.3  64.2 1016.5 15.9  1.012 -99.9 -99.99 -9.99
2019/12/05 19:42 CST    0.43   0.55    3  130    4  63.3  64.2 1016.4 15.9  1.012 -99.9 -99.99 -9.99
2019/12/05 19:48 CST    0.42   0.62    4  135    6  63.5  64.2 1016.4 15.9  1.012 -99.9 -99.99 -9.99
2019/12/05 19:54 CST    0.42   0.70    6  129    8  63.5  64.2 1016.4 15.9  1.012 -99.9 -99.99 -9.99
2019/12/05 20:00 CST    0.41   0.60    4  131    7  63.5  64.2 1016.4 15.9  1.012 -99.9 -99.99 -9.99
2019/12/05 20:06 CST    0.41   0.63    4  127    6  63.5  64.2 1016.5 15.9  1.012 -99.9 -99.99 -9.99
2019/12/05 20:12 CST    0.40   0.58    6  133    7  63.5  64.2 1016.3 15.9  1.012 -99.9 -99.99 -9.99
2019/12/05 20:18 CST    0.40   0.66    6  132    8  63.5  64.2 1016.3 15.8  1.012 -99.9 -99.99 -9.99
2019/12/05 20:24 CST    0.40   0.61    5  135    7  63.5  64.2 1016.3 15.9  1.012 -99.9 -99.99 -9.99
2019/12/05 20:30 CST    0.39   0.67    6  129    7  63.5  64.2 1016.4 15.9  1.012 -99.9 -99.99 -9.99
2019/12/05 20:36 CST    0.39   0.59    5  122    7  63.3  64.2 1016.5 15.0  1.011 -99.9 -99.99 -9.99
2019/12/05 20:42 CST    0.39   0.65    5  131    6  63.3  64.2 1016.5 14.8  1.011 -99.9 -99.99 -9.99
2019/12/05 20:48 CST    0.38   0.57    6  134    8  63.3  64.2 1016.5 15.0  1.011 -99.9 -99.99 -9.99
2019/12/05 20:54 CST    0.38   0.62    5  127    7  63.3  64.2 1016.6 15.0  1.011 -99.9 -99.99 -9.99
2019/12/05 21:00 CST    0.38   0.71    6  123    7  63.3  64.2 1016.6 15.3  1.011 -99.9 -99.99 -9.99
2019/12/05 21:06 CST    0.38   0.66    5  136    7  63.5  64.2 1016.6 15.0  1.011 -99.9 -99.99 -9.99
2019/12/05 21:12 CST    0.38   0.66    5  142    7  63.3  64.2 1016.7 15.0  1.011 -99.9 -99.99 -9.99
2019/12/05 21:18 CST    0.38   0.64    5  136    6  63.5  64.2 1016.7 14.9  1.011 -99.9 -99.99 -9.99
2019/12/05 21:24 CST    0.38   0.66    6  138    8  63.7  64.2 1016.6 15.0  1.011 -99.9 -99.99 -9.99
2019/12/05 21:30 CST    0.38   0.56    7  142    9  63.7  64.2 1016.6 15.0  1.011 -99.9 -99.99 -9.99
2019/12/05 21:36 CST    0.39   0.77    5  145    8  63.7  64.2 1016.6 14.9  1.011 -99.9 -99.99 -9.99
2019/12/05 21:42 CST    0.39   0.69    6  145    8  63.9  64.2 1016.5 14.9  1.011 -99.9 -99.99 -9.99
2019/12/05 21:48 CST    0.39   0.68    7  144    9  63.9  64.2 1016.6 15.0  1.011 -99.9 -99.99 -9.99
2019/12/05 21:54 CST    0.40   0.62    5  142    8  64.0  64.2 1016.7 14.8  1.011 -99.9 -99.99 -9.99
2019/12/05 22:00 CST    0.40   0.68    5  146    7  64.0  64.2 1016.7 15.0  1.011 -99.9 -99.99 -9.99
2019/12/05 22:06 CST    0.41   0.75    5  146    7  64.0  64.2 1016.6 14.9  1.011 -99.9 -99.99 -9.99
2019/12/05 22:12 CST    0.42   0.83    5  153    7  64.0  64.2 1016.6 14.9  1.011 -99.9 -99.99 -9.99
2019/12/05 22:18 CST    0.42   0.81    4  162    6  64.0  64.2 1016.7 14.9  1.011 -99.9 -99.99 -9.99
2019/12/05 22:24 CST    0.43   0.75    3  163    6  63.9  64.2 1016.7 14.9  1.011 -99.9 -99.99 -9.99
2019/12/05 22:30 CST    0.44   0.68    4  161    5  63.9  64.2 1016.8 15.0  1.011 -99.9 -99.99 -9.99
2019/12/05 22:36 CST    0.45   0.76    4  165    4  63.7  64.2 1016.7 15.0  1.011 -99.9 -99.99 -9.99
2019/12/05 22:42 CST    0.46   0.77    3  166    5  63.7  64.0 1016.7 15.0  1.011 -99.9 -99.99 -9.99
2019/12/05 22:48 CST    0.46   0.85    2  161    4  63.7  64.0 1016.7 15.0  1.011 -99.9 -99.99 -9.99
2019/12/05 22:54 CST    0.47   0.84    2  162    3  63.7  64.0 1016.8 15.0  1.011 -99.9 -99.99 -9.99
2019/12/05 23:00 CST    0.48   0.85    3  168    3  63.7  64.0 1016.7 15.0  1.011 -99.9 -99.99 -9.99
2019/12/05 23:06 CST    0.49   0.83    3  170    4  63.7  64.0 1016.7 15.0  1.011 -99.9 -99.99 -9.99
2019/12/05 23:12 CST    0.50   0.86    2  174    4  63.5  64.0 1016.8 15.2  1.011 -99.9 -99.99 -9.99
2019/12/05 23:18 CST    0.51   0.87    3  160    3  63.5  64.0 1016.7 15.1  1.011 -99.9 -99.99 -9.99
2019/12/05 23:24 CST    0.52   0.90    3  168    4  63.5  64.0 1016.6 15.1  1.011 -99.9 -99.99 -9.99
2019/12/05 23:30 CST    0.53   0.90    3  176    4  63.5  64.0 1016.6 15.1  1.011 -99.9 -99.99 -9.99
2019/12/05 23:36 CST    0.54   0.88    2  170    3  63.5  64.0 1016.7 15.1  1.011 -99.9 -99.99 -9.99
2019/12/05 23:42 CST    0.55   0.92    2  164    2  63.5  64.0 1016.7 15.1  1.011 -99.9 -99.99 -9.99
2019/12/05 23:48 CST    0.56   0.94    2  156    2  63.5  64.0 1016.7 15.2  1.011 -99.9 -99.99 -9.99
2019/12/05 23:54 CST    0.57   1.05    2  167    3  63.5  64.0 1016.7 15.2  1.011 -99.9 -99.99 -9.99
2019/12/06 00:00 CST    0.58   0.98    1  159    3  63.5  64.0 1016.6 15.2  1.011 -99.9 -99.99 -9.99
2019/12/06 00:06 CST    0.59   1.02    0  106    2  63.0  64.0 1016.7 15.2  1.011 -99.9 -99.99 -9.99
2019/12/06 00:12 CST    0.60   0.94    2  173    3  63.5  64.0 1016.6 15.2  1.011 -99.9 -99.99 -9.99
2019/12/06 00:18 CST    0.61   1.10    3  171    4  63.5  64.0 1016.5 15.2  1.011 -99.9 -99.99 -9.99
2019/12/06 00:24 CST    0.62   1.09    4  173    4  63.5  64.0 1016.4 15.2  1.011 -99.9 -99.99 -9.99
2019/12/06 00:30 CST    0.63   1.00    3  181    4  63.5  64.0 1016.4 15.2  1.011 -99.9 -99.99 -9.99
2019/12/06 00:36 CST    0.64   1.00    2  181    3  63.5  64.0 1016.4 15.2  1.011 -99.9 -99.99 -9.99
2019/12/06 00:42 CST    0.66   1.06    3  170    4  63.5  64.0 1016.3 15.2  1.011 -99.9 -99.99 -9.99
2019/12/06 00:48 CST    0.67   1.11    4  174    4  63.5  64.0 1016.3 15.1  1.011 -99.9 -99.99 -9.99
2019/12/06 00:54 CST    0.68   1.22    3  175    4  63.5  64.0 1016.3 15.2  1.011 -99.9 -99.99 -9.99
2019/12/06 01:00 CST    0.69   1.08    2  177    3  63.5  64.0 1016.2 15.2  1.011 -99.9 -99.99 -9.99
2019/12/06 01:06 CST    0.71   1.11    3  171    3  63.5  64.0 1016.2 15.2  1.011 -99.9 -99.99 -9.99
2019/12/06 01:12 CST    0.72   1.18    2  177    4  63.5  64.0 1016.2 15.2  1.011 -99.9 -99.99 -9.99
2019/12/06 01:18 CST    0.73   1.21    2  176    3  63.3  64.0 1016.2 15.2  1.011 -99.9 -99.99 -9.99
2019/12/06 01:24 CST    0.75   1.19    3  179    4  63.5  64.0 1016.1 15.2  1.011 -99.9 -99.99 -9.99
2019/12/06 01:30 CST    0.76   1.21    3  173    4  63.5  64.0 1016.1 15.2  1.011 -99.9 -99.99 -9.99
2019/12/06 01:36 CST    0.78   1.21    2  172    4  63.3  64.0 1016.1 15.2  1.011 -99.9 -99.99 -9.99
2019/12/06 01:42 CST    0.79   1.25    2  170    3  63.3  64.0 1016.1 15.2  1.011 -99.9 -99.99 -9.99
2019/12/06 01:48 CST    0.80   1.27    3  174    3  63.5  64.0 1016.1 15.2  1.011 -99.9 -99.99 -9.99
2019/12/06 01:54 CST    0.81   1.23    3  176    3  63.5  64.0 1016.0 15.2  1.011 -99.9 -99.99 -9.99
2019/12/06 02:00 CST    0.83   1.24    3  178    4  63.5  64.0 1016.0 15.2  1.011 -99.9 -99.99 -9.99
2019/12/06 02:06 CST    0.84   1.28    2  188    4  63.9  64.0 1016.0 15.2  1.011 -99.9 -99.99 -9.99
2019/12/06 02:12 CST    0.85   1.31    4  188    6  64.6  64.0 1015.9 15.2  1.011 -99.9 -99.99 -9.99
2019/12/06 02:18 CST    0.86   1.30    4  188    6  64.9  64.0 1015.9 15.2  1.011 -99.9 -99.99 -9.99
2019/12/06 02:24 CST    0.87   1.35    4  183    6  64.8  64.0 1015.8 15.2  1.011 -99.9 -99.99 -9.99
2019/12/06 02:30 CST    0.88   1.32    4  191    7  65.1  64.0 1015.9 15.2  1.011 -99.9 -99.99 -9.99
2019/12/06 02:36 CST    0.89   1.35    3  193    5  65.5  64.0 1015.9 15.2  1.011 -99.9 -99.99 -9.99
2019/12/06 02:42 CST    0.90   1.36    4  194    7  65.7  64.0 1015.9 15.2  1.011 -99.9 -99.99 -9.99
2019/12/06 02:48 CST    0.91   1.38    3  196    6  65.7  64.0 1015.9 15.2  1.011 -99.9 -99.99 -9.99
2019/12/06 02:54 CST    0.92   1.38    3  212    5  65.7  63.9 1016.0 15.3  1.011 -99.9 -99.99 -9.99
2019/12/06 03:00 CST    0.93   1.40    2  209    4  65.8  63.9 1016.0 15.3  1.011 -99.9 -99.99 -9.99
2019/12/06 03:06 CST    0.93   1.33    3  211    5  66.2  63.9 1016.1 15.3  1.011 -99.9 -99.99 -9.99
2019/12/06 03:12 CST    0.94   1.38    4  200    6  66.6  63.9 1016.1 15.5  1.011 -99.9 -99.99 -9.99
2019/12/06 03:18 CST    0.95   1.42    4  198    6  66.7  63.9 1016.2 15.5  1.011 -99.9 -99.99 -9.99
2019/12/06 03:24 CST    0.95   1.44    3  209    7  66.6  63.9 1016.1 15.6  1.011 -99.9 -99.99 -9.99
2019/12/06 03:30 CST    0.96   1.40    4  218    6  66.6  63.9 1016.2 15.5  1.011 -99.9 -99.99 -9.99
2019/12/06 03:36 CST    0.96   1.37    3  195    7  66.6  63.9 1016.1 15.5  1.011 -99.9 -99.99 -9.99
2019/12/06 03:42 CST    0.96   1.37    3  199    5  66.4  63.9 1016.2 15.5  1.011 -99.9 -99.99 -9.99
2019/12/06 03:48 CST    0.97   1.42    4  208    6  66.2  63.9 1016.2 15.6  1.011 -99.9 -99.99 -9.99
2019/12/06 03:54 CST    0.97   1.42 -999 -999 -999 -99.9 -99.9 -999.9 -9.9 -9.999 -99.9 -99.99 -9.99
2019/12/06 04:00 CST    0.97   1.39    4  226    7  66.9  63.9 1016.4 15.5  1.011 -99.9 -99.99 -9.99
2019/12/06 04:06 CST    0.97 -99.99 -999 -999 -999 -99.9 -99.9 -999.9 -9.9 -9.999 -99.9 -99.99 -9.99